Biedriem

VSK Noskrien twitter
VSK Noskrien Facebook profils

Polar M400 HR
Ūdensizturīgs GPS pulsometrs ikdienas treniņiem un sportiskiem sasniegumiem.
EUR 189.00

Noskrietais


Visi skrējieni šim skrējējam
Datums Notikums Skrējējs Km Laiks Pulss min/km km/h Apavi
09/12/18 Treniņš Dainis 12.00 1:24:00 07:00 8.57 ir
07/12/18 Treniņš Dainis 12.10 1:19:24 06:33 9.14 ir
06/12/18 Treniņš Dainis 12.19 1:20:08 06:34 9.13 ir
05/12/18 Treniņš Dainis 12.07 1:17:36 06:25 9.33 ir
04/12/18 Treniņš Dainis 12.17 1:16:56 06:19 9.49 ir
03/12/18 Treniņš Dainis 13.00 1:24:46 06:31 9.20 ir
73.53
01/12/18 Treniņš Dainis 7.96 53:50 06:45 8.87 ir
30/11/18 Treniņš Dainis 12.21 1:19:36 06:31 9.20 ir
29/11/18 Treniņš Dainis 6.30 40:46 06:28 9.27 ir
28/11/18 Treniņš: ar Valda 5km Dainis 12.49 1:31:15 07:18 8.21 ir
27/11/18 Ar Valdu parkā Dainis 4.79 39:41 08:17 7.24 ir
26/11/18 Treniņš Dainis 12.24 1:16:18 06:14 9.63 ir
55.99
25/11/18 Treniņš Dainis 12.06 1:19:10 06:33 9.14 ir
24/11/18 Treniņš Dainis 12.24 1:19:38 06:30 9.22 ir
23/11/18 Treniņš Dainis 12.41 1:19:05 06:22 9.42 ir
22/11/18 Treniņš Dainis 12.27 1:19:07 06:26 9.31 ir
20/11/18 Treniņš Dainis 13.12 1:23:34 06:22 9.42 ir
19/11/18 Treniņš Dainis 12.04 1:17:00 06:23 9.38 ir
74.14
16/11/18 Andrejostā foršākie kuģīši Dainis 12.06 1:18:27 06:30 9.22 ir
15/11/18 Treniņš Dainis 16.13 1:41:46 06:18 9.51 ir
14/11/18 Treniņš Dainis 12.10 1:18:51 06:30 9.21 ir
13/11/18 Treniņš Dainis 13.02 1:25:35 06:34 9.13 ir
53.31
11/11/18 Treniņš Dainis 12.37 1:19:03 06:23 9.39 ir
10/11/18 Treniņš Dainis 12.19 1:18:15 06:25 9.35 ir
09/11/18 Treniņš Dainis 12.15 1:16:53 06:19 9.48 ir
08/11/18 Treniņš Dainis 12.03 1:15:58 06:18 9.50 ir
07/11/18 Treniņš Dainis 13.31 1:29:15 06:42 8.95 ir
06/11/18 Treniņš Dainis 12.17 1:19:38 06:32 9.17 ir
05/11/18 Treniņš Dainis 12.18 1:20:07 06:34 9.12 ir
86.40
03/11/18 Treniņš Dainis 12.29 1:14:37 06:04 9.88 ir
02/11/18 Treniņš Dainis 12.23 1:19:03 06:27 9.28 ir
01/11/18 Treniņš Dainis 12.13 1:19:33 06:33 9.15 ir
31/10/18 Treniņš Dainis 13.29 1:25:08 06:24 9.37 ir
30/10/18 Treniņš Dainis 12.14 1:20:30 06:37 9.05 ir
62.08
28/10/18 Treniņš Dainis 12.12 1:20:02 06:36 9.09 ir
27/10/18 Treniņš Dainis 12.41 1:18:28 06:19 9.49 ir
26/10/18 Treniņš Dainis 12.07 1:15:03 06:13 9.65 ir
25/10/18 Treniņš Dainis 12.12 1:19:44 06:34 9.12 ir
24/10/18 Treniņš Dainis 12.11 1:23:15 06:52 8.73 ir
22/10/18 Treniņš Dainis 12.18 1:18:39 06:27 9.29 ir
73.01
21/10/18 Treniņš Dainis 12.13 1:20:27 06:37 9.05 ir
20/10/18 Treniņš Dainis 12.17 1:16:17 06:16 9.57 ir
19/10/18 Treniņš Dainis 12.20 1:18:21 06:25 9.34 ir
18/10/18 Treniņš Dainis 12.11 1:19:23 06:33 9.15 ir
17/10/18 Treniņš Dainis 12.09 1:16:02 06:17 9.54 ir
16/10/18 Treniņš Dainis 12.11 1:15:42 06:15 9.60 ir
15/10/18 Treniņš Dainis 12.14 1:14:45 06:09 9.74 ir
84.95
13/10/18 Treniņš Dainis 12.19 1:20:45 06:37 9.06 ir
12/10/18 Treniņš Dainis 12.10 1:15:07 06:12 9.66 ir
11/10/18 Treniņš Dainis 12.09 1:20:16 06:38 9.04 ir
10/10/18 Treniņš Dainis 13.17 1:26:11 06:32 9.17 ir
09/10/18 Treniņš Dainis 12.12 1:17:01 06:21 9.44 ir
61.67
07/10/18 Treniņš Dainis 12.02 1:16:34 06:22 9.42 ir
06/10/18 Treniņš Dainis 12.31 1:16:31 06:12 9.65 ir
03/10/18 Treniņš Dainis 2.20 14:10 06:26 9.32 ir
01/10/18 Treniņš Dainis 12.13 1:22:00 06:45 8.88 ir
38.66
30/09/18 Treniņš Dainis 12.21 1:23:08 06:48 8.81 ir
29/09/18 Treniņš Dainis 2.50 16:00 06:24 9.38 ir
27/09/18 Treniņš Dainis 12.12 1:21:28 06:43 8.93 ir
26.83
22/09/18 Treniņš Dainis 11.35 1:11:43 06:19 9.50 ir
21/09/18 Treniņš Dainis 12.22 1:17:59 06:22 9.40 ir
20/09/18 Treniņš Dainis 17.07 1:45:15 06:09 9.73 ir
19/09/18 Treniņš Dainis 4.31 28:06 06:31 9.20 ir
18/09/18 Treniņš Dainis 13.03 1:22:17 06:18 9.50 ir
17/09/18 Treniņš Dainis 12.16 1:20:21 06:36 9.08 ir
70.14
16/09/18 Treniņš Dainis 12.13 1:17:34 06:23 9.38 ir
15/09/18 Treniņš Dainis 12.24 1:17:26 06:19 9.48 ir
14/09/18 Treniņš Dainis 12.09 1:18:37 06:30 9.23 ir
13/09/18 Treniņš Dainis 12.13 1:20:01 06:35 9.10 ir
12/09/18 Treniņš Dainis 12.15 1:18:44 06:28 9.26 ir
11/09/18 Treniņš Dainis 13.24 1:25:04 06:25 9.34 ir
10/09/18 Treniņš Dainis 12.11 1:17:05 06:21 9.43 ir
86.09
09/09/18 Treniņš Dainis 12.19 1:17:40 06:22 9.42 ir
08/09/18 Treniņš Dainis 13.01 1:25:52 06:36 9.09 ir
07/09/18 Treniņš Dainis 12.07 1:17:57 06:27 9.29 ir
06/09/18 Treniņš Dainis 4.44 27:54 06:17 9.55 ir
05/09/18 Treniņš Dainis 18.13 2:03:01 06:47 8.84 ir
04/09/18 Treniņš Dainis 13.31 1:29:15 06:42 8.95 ir
03/09/18 Treniņš: https://www.strava.com/activities/1816334823 Dainis 11.90 1:15:53 06:22 9.41 ir
85.05
02/09/18 Treniņš: https://www.strava.com/activities/1813759745 Dainis 6.30 42:21 06:43 8.93 ir
02/09/18 Treniņš: https://www.strava.com/activities/1813759765https://www.strava.com/activities/1813759765htt Dainis 6.17 38:11 06:11 9.70 ir
01/09/18 Treniņš: https://www.strava.com/activities/1812282570 Dainis 3.33 27:00 08:06 7.40 ir
31/08/18 Treniņš: https://www.strava.com/activities/1809310573 Dainis 11.89 1:17:59 06:33 9.15 ir
30/08/18 Treniņš: https://www.strava.com/activities/1807128544 Dainis 12.25 1:19:23 06:28 9.26 ir
29/08/18 Treniņš: https://www.strava.com/activities/1805097015 Dainis 12.03 1:16:07 06:19 9.48 ir
28/08/18 Treniņš: https://www.strava.com/activities/1802693497 Dainis 12.13 1:20:24 06:37 9.05 ir
27/08/18 Skrējiens Dainis 12.21 1:20:08 06:33 9.14 ir
27/08/18 Skrējiens Dainis 3.96 33:19 08:24 7.13 ir
80.27
26/08/18 Skrējiens Dainis 13.91 1:30:35 06:30 9.21 ir
25/08/18 Skrējiens Dainis 12.41 1:24:00 06:46 8.86 ir
24/08/18 Skrējiens Dainis 12.33 1:25:40 06:56 8.64 ir
23/08/18 Skrējiens Dainis 12.19 1:19:04 06:29 9.25 ir
22/08/18 Skrējiens Dainis 17.13 1:52:40 06:34 9.12 ir
21/08/18 Skrējiens Dainis 13.94 1:32:39 06:38 9.03 ir
20/08/18 Skrējiens Dainis 12.49 1:20:41 06:27 9.29 ir
94.40
19/08/18 Skrējiens Dainis 11.25 1:21:00 07:12 8.33 ir
18/08/18 Skrējiens Dainis 4.56 34:11 07:29 8.00 ir
17/08/18 Skrējiens Dainis 12.09 1:23:21 06:53 8.70 ir
17/08/18 Skrējiens Dainis 4.89 30:46 06:17 9.54 ir
16/08/18 Skrējiens Dainis 10.08 1:10:33 06:59 8.57 ir
16/08/18 Skrējiens Dainis 12.09 1:20:27 06:39 9.02 ir
15/08/18 Endomondo gļuko? Dainis 13.16 1:28:56 06:45 8.88 ir
15/08/18 Skrējiens Dainis 8.26 57:28 06:57 8.62 ir
14/08/18 Skrējiens Dainis 13.11 1:28:25 06:44 8.90 ir
14/08/18 Skrējiens Dainis 5.12 34:23 06:42 8.93 ir
13/08/18 Skrējiens Dainis 13.03 1:29:50 06:53 8.70 ir
13/08/18 Skrējiens Dainis 9.04 1:00:42 06:42 8.94 ir
116.68
11/08/18 Skrējiens Dainis 6.39 41:31 06:29 9.23 ir
09/08/18 Skrējiens Dainis 6.35 43:29 06:50 8.76 ir
07/08/18 Skrējiens Dainis 6.02 40:40 06:45 8.88 ir
06/08/18 Skrējiens Dainis 13.01 1:22:55 06:22 9.41 ir
31.77
04/08/18 Skrējiens Dainis 10.82 1:10:39 06:31 9.19 ir
03/08/18 Skrējiens Dainis 9.47 1:02:14 06:34 9.13 ir
30/07/18 Skrējiens Dainis 5.90 44:51 07:36 7.89 ir
26.19
27/07/18 Skrējiens Dainis 6.09 41:04 06:44 8.90 ir
6.09
22/07/18 Skrējiens Dainis 5.38 33:49 06:17 9.55 ir
20/07/18 Skrējiens Dainis 6.18 41:48 06:45 8.87 ir
19/07/18 Skrējiens Dainis 2.74 18:32 06:45 8.87 ir
18/07/18 Skrējiens Dainis 8.89 58:19 06:33 9.15 ir
17/07/18 Skrējiens Dainis 5.15 34:59 06:47 8.83 ir
28.34
15/07/18 Skrējiens Dainis 6.08 41:38 06:50 8.76 ir
6.08
08/07/18 Skrējiens Dainis 6.12 39:27 06:26 9.31 ir
04/07/18 Treniņš Dainis 2.25 15:00 06:40 9.00 ir
04/07/18 Skrējiens Dainis 9.98 1:11:38 07:10 8.36 ir
18.35
30/06/18 Skrējiens Dainis 8.51 53:18 06:15 9.58 ir
30/06/18 Treniņš: ko nošmauca Endomondo Dainis 5.49 36:00 06:33 9.15 ir
29/06/18 Skrējiens Dainis 11.17 1:09:40 06:14 9.62 ir
27/06/18 Skrējiens Dainis 10.64 1:08:28 06:26 9.32 ir
26/06/18 Skrējiens Dainis 4.06 34:18 08:26 7.10 ir
25/06/18 Skrējiens Dainis 14.05 1:33:43 06:40 9.00 ir
53.92
23/06/18 Skrējiens Dainis 8.15 1:01:05 07:29 8.01 ir
21/06/18 Skrējiens Dainis 11.18 1:16:12 06:48 8.80 ir
20/06/18 Skrējiens Dainis 10.07 1:05:36 06:30 9.21 ir
29.40
17/06/18 Skrējiens Dainis 8.78 58:55 06:42 8.94 ir
16/06/18 Skrējiens Dainis 12.29 1:19:18 06:27 9.30 ir
13/06/18 Skrējiens Dainis 7.08 48:24 06:50 8.78 ir
12/06/18 Skrējiens Dainis 7.05 42:57 06:05 9.85 ir
12/06/18 Treniņš: ko nošmauca Endomondo Dainis 1.70 11:00 06:28 9.27 ir
36.90
09/06/18 Skrējiens Dainis 2.02 15:00 07:25 8.08 ir
08/06/18 Skrējiens Dainis 7.87 54:21 06:54 8.69 ir
05/06/18 Skrējiens Dainis 2.06 15:16 07:24 8.10 ir
11.95
01/06/18 Lielvārdē līdz Ezeriņiem Dainis 6.00 38:00 06:20 9.47 ir
6.00
27/05/18 Skrējiens Dainis 2.73 18:35 06:48 8.81 ir
25/05/18 Skrējiens Dainis 4.31 26:43 06:11 9.68 ir
24/05/18 Skrējiens Dainis 6.74 43:29 06:27 9.30 ir
23/05/18 Skrējiens Dainis 1.78 12:02 06:45 8.88 ir
23/05/18 Treniņš parkā Dainis 4.00 30:00 07:30 8.00 ir
22/05/18 Skrējiens Dainis 5.34 34:38 06:29 9.25 ir
24.90
19/05/18 Skrējiens Dainis 14.43 1:36:32 06:41 8.97 ir
15/05/18 Skrējiens Dainis 6.10 40:06 06:34 9.13 ir
15/05/18 Skrējiens Dainis 1.74 13:24 07:42 7.79 ir
15/05/18 Endomondo nošmauktais Dainis 4.00 27:00 06:45 8.89 ir
14/05/18 Skrējiens Dainis 10.39 1:06:57 06:26 9.31 ir
14/05/18 Skrējiens Dainis 2.57 21:36 08:24 7.14 ir
39.23
13/05/18 Skrējiens Dainis 3.29 28:25 08:38 6.95 ir
10/05/18 Skrējiens Dainis 10.48 1:21:41 07:47 7.70 ir
10/05/18 Endomondo nošmauktais Dainis 1.60 11:00 06:52 8.73 ir
09/05/18 Skrējiens Dainis 9.13 1:01:48 06:46 8.86 ir
08/05/18 Skrējiens Dainis 8.20 56:16 06:51 8.74 ir
07/05/18 Skrējiens Dainis 4.35 27:08 06:14 9.62 ir
37.05
05/05/18 Skrējiens Dainis 15.53 1:41:56 06:33 9.14 ir
04/05/18 2 * pa 3  Dainis 6.00 40:00 06:40 9.00 ir
03/05/18 Līdz Andrejostai Dainis 12.00 1:20:00 06:40 9.00 ir
02/05/18 Treniņš: dubultastoņnieks Dainis 4.50 28:00 06:13 9.64 ir
01/05/18 Skrējiens Dainis 6.53 44:17 06:46 8.85 ir
44.56
29/04/18 Skrējiens Dainis 15.51 1:43:01 06:38 9.03 ir
28/04/18 Skrējiens Dainis 5.68 40:53 07:11 8.34 ir
27/04/18 Skrējiens Dainis 4.19 27:49 06:38 9.04 ir
26/04/18 Skrējiens Dainis 6.20 40:56 06:36 9.09 ir
25/04/18 Skrējiens Dainis 9.05 1:01:38 06:48 8.81 ir
24/04/18 Skrējiens Dainis 5.36 35:14 06:34 9.13 ir
45.99
22/04/18 Skrējiens Dainis 12.00 1:21:20 06:46 8.85 ir
21/04/18 Skrējiens Dainis 13.18 1:30:21 06:51 8.75 ir
20/04/18 Skrējiens Dainis 13.13 1:26:57 06:37 9.06 ir
19/04/18 Skrējiens Dainis 4.41 26:29 06:00 9.99 ir
18/04/18 Skrējiens Dainis 6.64 47:40 07:10 8.36 ir
17/04/18 Skrējiens Dainis 4.94 26:21 05:20 11.25 ir
54.30
15/04/18 Skrējiens Dainis 16.16 1:49:08 06:45 8.88 ir
14/04/18 Skrējiens Dainis 16.10 1:44:48 06:30 9.22 ir
13/04/18 Skrējiens Dainis 3.92 26:56 06:52 8.73 ir
12/04/18 Skrējiens Dainis 16.19 1:48:13 06:41 8.98 ir
11/04/18 Skrējiens Dainis 4.21 25:43 06:06 9.82 ir
10/04/18 Skrējiens Dainis 4.34 27:14 06:16 9.56 ir
09/04/18 Skrējiens Dainis 12.81 1:24:44 06:36 9.07 ir
73.73
08/04/18 Ostas skati Dainis 16.70 1:53:00 06:45 8.87 ir
07/04/18 Skrējiens Dainis 6.26 47:33 07:35 7.90 ir
05/04/18 Skrējiens Dainis 5.93 44:35 07:31 7.98 ir
04/04/18 Skrējiens Dainis 4.75 27:17 05:44 10.45 ir
03/04/18 Skrējiens Dainis 4.17 28:26 06:49 8.80 ir
02/04/18 Skrējiens Dainis 4.31 28:39 06:38 9.03 ir
42.12
31/03/18 Skrējiens Dainis 7.31 54:24 07:26 8.06 ir
30/03/18 Skrējiens Dainis 12.08 1:22:39 06:50 8.77 ir
29/03/18 Skrējiens Dainis 1.22 10:22 08:29 7.06 ir
28/03/18 Skrējiens Dainis 3.16 27:43 08:46 6.84 ir
28/03/18 Skrējiens Dainis 1.89 13:46 07:17 8.24 ir
27/03/18 Skrējiens Dainis 24.06 2:45:16 06:52 8.73 ir
49.72
24/03/18 Skrējiens Dainis 13.17 1:29:52 06:49 8.79 ir
22/03/18 Skrējiens Dainis 4.31 28:18 06:33 9.14 ir
21/03/18 Skrējiens Dainis 8.26 57:15 06:55 8.66 ir
20/03/18 Skrējiens Dainis 0.77 16:24 21:17 2.82 ir
20/03/18 Endomondo nošmauktais :) Dainis 4.23 28:00 06:37 9.06 ir
19/03/18 Skrējiens Dainis 4.15 27:50 06:42 8.95 ir
34.89
18/03/18 Skrējiens Dainis 12.08 1:23:40 06:55 8.66 ir
17/03/18 Skrējiens Dainis 5.99 48:12 08:02 7.46 ir
15/03/18 Skrējiens Dainis 8.24 1:00:09 07:17 8.22 ir
14/03/18 Skrējiens Dainis 4.23 28:04 06:38 9.04 ir
13/03/18 Skrējiens Dainis 4.29 26:56 06:16 9.56 ir
12/03/18 Skrējiens Dainis 4.99 38:25 07:41 7.79 ir
39.82
10/03/18 Skrējiens Dainis 19.18 2:09:45 06:45 8.87 ir
09/03/18 Skrējiens Dainis 12.46 1:23:58 06:44 8.90 ir
08/03/18 Skrējiens Dainis 4.20 28:41 06:49 8.79 ir
07/03/18 Skrējiens Dainis 7.94 56:32 07:07 8.43 ir
05/03/18 Skrējiens Dainis 7.76 53:46 06:55 8.66 ir
51.54
04/03/18 Skrējiens Dainis 14.21 1:36:29 06:47 8.84 ir
03/03/18 Skrējiens Dainis 16.22 1:46:29 06:33 9.14 ir
02/03/18 Skrējiens Dainis 4.19 27:44 06:37 9.06 ir
01/03/18 Skrējiens Dainis 7.51 55:44 07:25 8.08 ir
28/02/18 Skrējiens Dainis 6.01 44:40 07:25 8.07 ir
26/02/18 Skrējiens Dainis 4.26 28:42 06:44 8.91 ir
52.40
25/02/18 Skrējiens Dainis 6.09 43:56 07:12 8.32 ir
24/02/18 Skrējiens Dainis 11.00 1:11:28 06:29 9.24 ir
23/02/18 Skrējiens Dainis 4.45 27:17 06:07 9.79 ir
22/02/18 TreniņšL GPS neieslēdzas Dainis 4.33 30:00 06:55 8.66 ir
21/02/18 Skrējiens Dainis 2.83 28:18 10:00 6.00 ir
21/02/18 Endomondo nošmauktais Dainis 1.50 10:00 06:40 9.00 ir
20/02/18 Skrējiens Dainis 10.20 1:14:36 07:18 8.20 ir
19/02/18 Skrējiens Dainis 4.22 27:37 06:32 9.17 ir
44.62
17/02/18 Skrējiens Dainis 18.52 2:10:13 07:01 8.53 ir
13/02/18 Skrējiens Dainis 4.29 28:22 06:36 9.07 ir
12/02/18 Skrējiens Dainis 4.39 26:17 05:59 10.02 ir
27.20
11/02/18 Skrējiens Dainis 15.46 1:51:26 07:12 8.32 ir
10/02/18 Skrējiens Dainis 13.71 1:30:57 06:38 9.04 ir
09/02/18 Skrējiens Dainis 12.40 1:25:57 06:55 8.66 ir
07/02/18 Skrējiens Dainis 4.18 28:50 06:53 8.70 ir
06/02/18 Skrējiens Dainis 4.35 28:54 06:38 9.03 ir
05/02/18 Skrējiens Dainis 4.13 30:08 07:17 8.22 ir
54.23
04/02/18 Skrējiens Dainis 7.38 50:21 06:49 8.79 ir
04/02/18 Aste no endomondo Dainis 5.04 34:00 06:44 8.89 ir
03/02/18 Skrējiens Dainis 4.39 28:24 06:28 9.27 ir
03/02/18 Skrējiens Dainis 11.11 1:17:41 06:59 8.58 ir
02/02/18 Skrējiens Dainis 12.32 1:23:01 06:44 8.90 ir
01/02/18 Skrējiens Dainis 4.21 27:53 06:37 9.06 ir
31/01/18 Skrējiens Dainis 4.30 27:40 06:26 9.33 ir
30/01/18 Skrējiens Dainis 4.46 30:19 06:47 8.83 ir
29/01/18 Skrējiens Dainis 4.13 27:10 06:34 9.12 ir
57.34
28/01/18 Skrējiens Dainis 12.01 1:20:04 06:40 9.00 ir
25/01/18 Skrējiens Dainis 4.33 28:25 06:33 9.14 ir
24/01/18 Skrējiens Dainis 4.41 30:44 06:58 8.61 ir
23/01/18 Skrējiens Dainis 11.13 1:17:08 06:55 8.66 ir
22/01/18 Skrējiens Dainis 4.38 29:43 06:47 8.84 ir
36.26
20/01/18 Skrējiens Dainis 12.99 1:30:02 06:55 8.66 ir
19/01/18 Skrējiens Dainis 6.01 41:34 06:54 8.68 ir
18/01/18 Skrējiens Dainis 6.61 43:48 06:37 9.05 ir
17/01/18 Skrējiens Dainis 9.33 1:07:20 07:13 8.31 ir
16/01/18 Skrējiens Dainis 10.06 1:11:26 07:06 8.45 ir
15/01/18 Skrējiens Dainis 9.65 1:08:06 07:03 8.50 ir
54.65
14/01/18 Skrējiens Dainis 4.50 33:16 07:23 8.12 ir
12/01/18 Skrējiens Dainis 13.28 1:33:28 07:02 8.52 ir
11/01/18 Skrējiens Dainis 7.73 52:41 06:48 8.80 ir
10/01/18 Skrējiens Dainis 10.08 1:12:45 07:13 8.31 ir
35.59
07/01/18 Skrējiens Dainis 2.62 17:56 06:50 8.77 ir
07/01/18 Skrējiens Dainis 4.66 32:13 06:54 8.68 ir
04/01/18 Skrējiens Dainis 2.45 22:01 08:59 6.68 ir
03/01/18 Skrējiens Dainis 4.29 31:13 07:16 8.25 ir
02/01/18 Skrējiens Dainis 2.47 21:25 08:40 6.92 ir
16.49
31/12/17 Skrējiens Dainis 1.28 09:35 07:29 8.01 ir
1.28
30/11/17 Skrējiens Dainis 2.40 18:44 07:48 7.69 ir
28/11/17 Skrējiens Dainis 2.80 20:25 07:17 8.23 ir
27/11/17 Skrējiens Dainis 2.94 19:51 06:45 8.89 ir
8.14
26/11/17 Skrējiens Dainis 2.54 18:13 07:10 8.37 ir
2.54
15/11/17 Skrējiens Dainis 2.55 26:57 10:34 5.68 ir
2.55
31/10/17 Skrējiens Dainis 4.33 27:24 06:19 9.48 ir
4.33
29/10/17 Skrējiens Dainis 4.64 26:42 05:45 10.43 ir
29/10/17 Skrējiens Dainis 11.07 1:09:43 06:17 9.53 ir
27/10/17 Skrējiens Dainis 1.24 08:07 06:32 9.17 ir
16.95
20/10/17 Skrējiens Dainis 0.34 05:59 17:35 3.41 ir
19/10/17 Skrējiens Dainis 4.04 27:50 06:53 8.71 ir
19/10/17 Skrējiens Dainis 11.98 1:19:09 06:36 9.08 ir
18/10/17 Skrējiens Dainis 4.40 27:22 06:13 9.65 ir
18/10/17 Skrējiens Dainis 4.36 27:12 06:14 9.62 ir
17/10/17 Skrējiens Dainis 4.34 27:53 06:25 9.34 ir
16/10/17 Skrējiens Dainis 4.40 26:47 06:05 9.86 ir
16/10/17 Skrējiens Dainis 4.32 28:58 06:42 8.95 ir
38.18
15/10/17 Skrējiens Dainis 4.29 26:54 06:16 9.57 ir
15/10/17 Skrējiens Dainis 12.18 1:18:27 06:26 9.32 ir
13/10/17 Skrējiens Dainis 4.40 25:38 05:49 10.30 ir
12/10/17 Skrējiens Dainis 2.13 19:07 08:58 6.69 ir
12/10/17 Skrējiens Dainis 9.38 55:45 05:56 10.10 ir
09/10/17 Skrējiens Dainis 2.92 18:52 06:27 9.29 ir
35.30
07/10/17 Skrējiens Dainis 2.93 16:49 05:44 10.45 ir
06/10/17 Skrējiens Dainis 3.44 21:27 06:14 9.62 ir
05/10/17 Skrējiens Dainis 2.80 19:30 06:57 8.62 ir
04/10/17 Treniņš Dainis 6.00 37:00 06:10 9.73 ir
02/10/17 Skrējiens Dainis 6.82 46:25 06:48 8.82 ir
02/10/17 Treniņš Dainis 6.00 38:00 06:20 9.47 ir
02/10/17 Treniņš Dainis 2.94 19:30 06:37 9.05 ir
30.93
30/09/17 Dienas skrējiens Dainis 5.74 37:00 06:26 9.31 ir
29/09/17 Pie sv. Franciska Dainis 6.00 37:00 06:10 9.73 ir
29/09/17 Rīta skrējiens Dainis 2.94 18:00 06:07 9.80 ir
28/09/17 Skrējiens Dainis 4.05 28:51 07:07 8.42 ir
28/09/17 Pie sv. Franciska Dainis 6.00 33:00 05:30 10.91 ir
27/09/17 Pie sv. Franciska Dainis 6.00 38:00 06:20 9.47 ir
27/09/17 Rīta skrējiens: ar Valdu Dainis 1.24 08:00 06:27 9.30 ir
26/09/17 Rīta skrējiens Dainis 2.94 18:00 06:07 9.80 ir
25/09/17 Rīta skrējiens Dainis 1.24 08:00 06:27 9.30 ir
36.15
24/09/17 Ostas skati Dainis 16.20 1:50:45 06:50 8.78 ir
24/09/17 Rīta skrējiens Dainis 2.94 19:00 06:27 9.28 ir
23/09/17 Pie sv. Franciska Dainis 6.00 39:00 06:30 9.23 ir
23/09/17 Rīta skrējiens Dainis 2.94 19:00 06:27 9.28 ir
22/09/17 Pie sv. Franciska Dainis 4.40 27:00 06:08 9.78 ir
22/09/17 Rīta skrējiens Dainis 2.94 18:00 06:07 9.80 ir
21/09/17 Rīta skrējiens: ar Valdu Dainis 1.24 09:00 07:15 8.27 ir
20/09/17 Pie sv. Franciska Dainis 6.00 38:00 06:20 9.47 ir
20/09/17 Rīta skrējiens Dainis 2.94 19:00 06:27 9.28 ir
45.60
17/09/17 Pie sv. Franciska Dainis 4.40 28:00 06:21 9.43 ir
17/09/17 Rīta skrējiens: ar Valdu Dainis 1.24 08:00 06:27 9.30 ir
16/09/17 Rīta skrējiens: ar Valdu Dainis 1.24 08:00 06:27 9.30 ir
15/09/17 Pie sv. Franciska Dainis 6.00 37:00 06:10 9.73 ir
15/09/17 Rīta skrējiens Dainis 1.70 11:00 06:28 9.27 ir
13/09/17 Pie sv. Franciska Dainis 2.80 18:00 06:25 9.33 ir
13/09/17 Rīta skrējiens Dainis 1.70 11:00 06:28 9.27 ir
11/09/17 Pie sv. Franciska Dainis 4.40 27:00 06:08 9.78 ir
23.48
10/09/17 AB dambis Dainis 14.07 1:36:55 06:53 8.71 ir
10/09/17 Rīta skrējiens: ar Valdu Dainis 1.24 09:00 07:15 8.27 ir
09/09/17 Daugavmalā Dainis 17.87 1:54:19 06:23 9.38 ir
08/09/17 Andrejosta Dainis 13.29 1:24:33 06:21 9.43 ir
08/09/17 Rīta skrējiens Dainis 4.40 27:00 06:08 9.78 ir
07/09/17 Rīta skrējiens Dainis 1.70 10:30 06:10 9.71 ir
06/09/17 Skrējiens Dainis 10.23 1:11:25 06:58 8.59 ir
06/09/17 Andrejosta Dainis 12.00 1:18:00 06:30 9.23 ir
06/09/17 Pie sv. Franciska Dainis 2.80 18:00 06:25 9.33 ir
05/09/17 Dienas skrējiens Dainis 1.70 10:00 05:52 10.20 ir
04/09/17 Pie sv. Franciska Dainis 4.40 24:00 05:27 11.00 ir
04/09/17 ArValdu Dainis 1.70 11:00 06:28 9.27 ir
85.40
02/09/17 Pie sv. Franciska Dainis 2.80 18:00 06:25 9.33 ir
01/09/17 1. septembris Dainis 4.40 28:00 06:21 9.43 ir
01/09/17 Rīta skrējiens: Dainis 1.24 08:00 06:27 9.30 ir
31/08/17 Dienvidu tilts Dainis 10.64 1:10:40 06:38 9.03 ir
31/08/17 Rīta skrējiens: ar Valdu Dainis 1.30 09:11 07:03 8.49 ir
30/08/17 Osta Dainis 11.38 1:38:33 08:39 6.93 ir
30/08/17 Rīta skrējiens Dainis 1.70 11:30 06:45 8.87 ir
29/08/17 Dienas skrējiens Dainis 2.80 18:00 06:25 9.33 ir
29/08/17 Rīta skrējiens ar Valdu Dainis 1.70 10:00 05:52 10.20 ir
28/08/17 Rīta skrējiens Dainis 1.70 10:00 05:52 10.20 ir
39.66
27/08/17 Rīta skrējiens: ar Valdu Dainis 1.92 15:00 07:48 7.68 ir
25/08/17 Ezeriņi Dainis 6.00 36:00 06:00 10.00 ir
24/08/17 Rīta skrējiens Lielvārdē Dainis 1.92 11:30 05:59 10.02 ir
23/08/17 Strawberry fields Dainis 6.00 36:00 06:00 10.00 ir
23/08/17 Rīta skrējiens Lielvārdē Dainis 2.48 18:00 07:15 8.27 ir
21/08/17 Līdz Dukātiem Dainis 11.02 1:10:35 06:24 9.37 ir
21/08/17 Rīta skrējiens Lielvārdē Dainis 2.48 18:00 07:15 8.27 ir
31.82
18/08/17 Rīta skrējiens Lielvārdē Dainis 2.48 16:00 06:27 9.30 ir
17/08/17 Vakara skrējiens ar Valdu Dainis 3.67 30:00 08:10 7.34 ir
17/08/17 Rīta skrējiens Lielvārdē Dainis 2.48 16:00 06:27 9.30 ir
16/08/17 Rīta skrējiens Lielvārdē Dainis 2.48 16:00 06:27 9.30 ir
14/08/17 Rīta skrējiens Lielvārdē Dainis 2.48 16:00 06:27 9.30 ir
13.59
12/08/17 Rīta skrējiens Lielvārdē ar Valdu Dainis 1.92 16:00 08:20 7.20 ir
11/08/17 Zigzati ar Valdu Dainis 7.93 52:00 06:33 9.15 ir
09/08/17 Rīta skrējiens Lielvārdē Dainis 2.48 16:00 06:27 9.30 ir
08/08/17 Rīta skrējiens Lielvārdē ar Valdu Dainis 1.92 16:00 08:20 7.20 ir
07/08/17 Rīta skrējiens Lielvārdē Dainis 2.48 16:00 06:27 9.30 ir
16.73
06/08/17 Rīta skrējiens Lielvārdē Dainis 2.48 16:00 06:27 9.30 ir
05/08/17 Līdz Paegļiem Dainis 9.90 1:00:00 06:03 9.90 ir
05/08/17 Rīta skrējiens Lielvārdē ar Valdu Dainis 2.00 16:00 08:00 7.50 ir
04/08/17 Rīta skrējiens Lielvārdē ar Valdu Dainis 1.92 16:00 08:20 7.20 ir
31/07/17 Rīta skrējiens Lielvārdē ar Valdu Dainis 1.92 16:00 08:20 7.20 ir
18.22
29/07/17 Rīta skrējiens Lielvārdē Dainis 2.48 16:00 06:27 9.30 ir
28/07/17 Līdz Paegļiem Dainis 8.80 55:00 06:14 9.60 ir
28/07/17 Rīta skrējiens Lielvārdē ar Valdu Dainis 1.92 16:00 08:20 7.20 ir
27/07/17 Rīta skrējiens Lielvārdē Dainis 2.48 16:00 06:27 9.30 ir
26/07/17 Rīta skrējiens Lielvārdē Dainis 2.48 16:00 06:27 9.30 ir
25/07/17 Vakara skrējiens Dainis 2.48 16:00 06:27 9.30 ir
25/07/17 Rīta skrējiens Lielvārdē Dainis 2.48 16:00 06:27 9.30 ir
24/07/17 Rīta skrējiens Lielvārdē Dainis 2.48 16:00 06:27 9.30 ir
25.60
22/07/17 Līdz Dukātiem Dainis 11.50 1:17:00 06:41 8.96 ir
22/07/17 Rīta skrējiens Lielvārdē Dainis 2.48 16:00 06:27 9.30 ir
21/07/17 Līdz Paegļiem Dainis 9.80 1:12:00 07:20 8.17 ir
21/07/17 Rīta skrējiens Lielvārdē Dainis 2.48 16:00 06:27 9.30 ir
20/07/17 Rīta skrējiens Lielvārdē Dainis 2.48 16:00 06:27 9.30 ir
18/07/17 Rīta skrējiens Lielvārdē Dainis 2.48 16:00 06:27 9.30 ir
31.22
16/07/17 Rīta skrējiens Lielvārdē Dainis 2.48 16:00 06:27 9.30 ir
15/07/17 Līdz Ezeriņiem Dainis 8.50 54:00 06:21 9.44 ir
15/07/17 Rīta skrējiens Lielvārdē ar Valdu Dainis 1.92 16:00 08:20 7.20 ir
14/07/17 Rīta skrējiens Lielvārdē ar Valdu Dainis 1.92 16:00 08:20 7.20 ir
13/07/17 Rīta skrējiens Lielvārdē ar Valdu Dainis 1.92 16:00 08:20 7.20 ir
11/07/17 Pēc zemenēm, Valda uz riteņa Dainis 6.40 37:00 05:46 10.38 ir
10/07/17 Vakara skrējiens ar Valdu Dainis 2.00 16:00 08:00 7.50 ir
10/07/17 Līdz Paegļiem Dainis 9.04 59:04 06:32 9.18 ir
34.18
09/07/17 Mazais Rembates aplis Dainis 8.30 55:00 06:37 9.05 ir
08/07/17 Rīta skrējiens Lielvārdē ar Valdu Dainis 1.92 16:00 08:20 7.20 ir
07/07/17 Līdz lidostai, Valda ar riteni Dainis 13.01 1:21:51 06:17 9.54 ir
07/07/17 Rīta skrējiens Lielvārdē ar Valdu Dainis 1.92 16:00 08:20 7.20 ir
06/07/17 Rīta skrējiens Lielvārdē ar Valdu Dainis 1.92 15:30 08:04 7.43 ir
05/07/17 Vakara skrējiens ar Valdu Dainis 1.92 15:30 08:04 7.43 ir
04/07/17 Rīta skrējiens Lielvārdē ar Valdu Dainis 1.92 15:30 08:04 7.43 ir
03/07/17 Rīta skrējiens Lielvārdē Dainis 2.70 17:00 06:17 9.53 ir
33.61
02/07/17 Rīta skrējiens Lielvārdē Dainis 2.70 16:54 06:15 9.59 ir
2.70
25/06/17 Rīta skrējiens Lielvārdē ar Valdu Dainis 2.48 20:58 08:27 7.10 ir
25/06/17 Rīta skrējiens Lielvārdē ar Valdu Dainis 1.92 15:00 07:48 7.68 ir
25/06/17 Lielvārdē Dainis 8.80 50:00 05:40 10.56 ir
25/06/17 Rīta skrējiens Lielvārdē Dainis 2.70 18:00 06:40 9.00 ir
23/06/17 Rīta skrējiens Lielvārdē Dainis 2.70 17:00 06:17 9.53 ir
21/06/17 Rīta skrējiens Lielvārdē Dainis 2.70 18:00 06:40 9.00 ir
21.30
18/06/17 Dālderi Dainis 11.58 1:07:58 05:52 10.22 ir
17/06/17 Ezeriņi Dainis 6.00 40:00 06:40 9.00 ir
17/06/17 Rīta skrējiens Lielvārdē Dainis 2.70 18:00 06:40 9.00 ir
16/06/17 Rīta skrējiens Lielvārdē Dainis 2.70 18:00 06:40 9.00 ir
16/06/17 Rīta skrējiens Lielvārdē Dainis 2.65 17:00 06:24 9.35 ir
25.63
10/06/17 Vakara skrējiens Dainis 1.70 11:30 06:45 8.87 ir
10/06/17 Astoria or Isabelle: whom Ferdinande came to meet? Dainis 14.00 1:33:00 06:38 9.03 ir
10/06/17 Rīta skrējiens Dainis 1.70 11:30 06:45 8.87 ir
09/06/17 Vakara skrējiens Dainis 1.70 11:30 06:45 8.87 ir
09/06/17 Pie sv. Franciska Dainis 6.00 36:00 06:00 10.00 ir
09/06/17 Rīta skrējiens: ar Valdu Dainis 1.70 11:30 06:45 8.87 ir
09/06/17 Vakara skrējiens ar Valdu Dainis 1.70 11:30 06:45 8.87 ir
08/06/17 Pie sv. Franciska Dainis 6.00 38:00 06:20 9.47 ir
08/06/17 Rīta skrējiens Dainis 1.70 11:30 06:45 8.87 ir
07/06/17 Vakara skrējiens ar Valdu Dainis 1.70 11:30 06:45 8.87 ir
07/06/17 Pie sv. Franciska Dainis 12.40 1:14:00 05:58 10.05 ir
07/06/17 Rīta skrējiens: ar Valdu Dainis 1.70 11:30 06:45 8.87 ir
06/06/17 Pie sv. Franciska Dainis 2.80 18:00 06:25 9.33 ir
06/06/17 Pie sv. Franciska Dainis 6.00 37:00 06:10 9.73 ir
06/06/17 Rīta skrējiens: ar Valdu Dainis 1.70 11:30 06:45 8.87 ir
05/06/17 Rīta skrējiens: ar Valdu Dainis 1.70 11:30 06:45 8.87 ir
64.20
04/06/17 Vakara skrējiens Dainis 1.70 11:30 06:45 8.87 ir
04/06/17 Rīta skrējiens: ar Valdu Dainis 1.70 11:30 06:45 8.87 ir
03/06/17 Pie sv. Franciska Dainis 12.40 1:15:00 06:02 9.92 ir
03/06/17 Rīta skrējiens: ar Valdu Dainis 1.70 11:30 06:45 8.87 ir
02/06/17 Pie sv. Franciska Dainis 6.00 36:00 06:00 10.00 ir
02/06/17 Rīta skrējiens: ar Valdu Dainis 1.70 11:30 06:45 8.87 ir
01/06/17 Dienas skrējiens Dainis 1.70 11:30 06:45 8.87 ir
01/06/17 Rīta skrējiens: ar Valdu Dainis 1.70 11:30 06:45 8.87 ir
31/05/17 Rīta skrējiens Dainis 1.70 11:00 06:28 9.27 ir
30/05/17 Pie sv. Franciska Dainis 10.80 1:10:00 06:28 9.26 ir
30/05/17 Rīta skrējiens: ar Valdu Dainis 1.70 11:30 06:45 8.87 ir
29/05/17 Pie sv. Franciska Dainis 6.00 38:00 06:20 9.47 ir
29/05/17 Rīta skrējiens: ar Valdu Dainis 1.70 11:30 06:45 8.87 ir
50.50
28/05/17 Pie sv. Franciska Dainis 6.00 36:00 06:00 10.00 ir
28/05/17 Pie sv. Franciska Dainis 7.60 46:00 06:03 9.91 ir
28/05/17 Rīta skrējiens: ar Valdu Dainis 1.70 11:30 06:45 8.87 ir
27/05/17 Pie sv. Franciska Dainis 4.40 28:00 06:21 9.43 ir
27/05/17 Rīta skrējiens: ar Valdu Dainis 1.70 11:30 06:45 8.87 ir
26/05/17 Rīta skrējiens: ar Valdu Dainis 1.70 11:30 06:45 8.87 ir
26/05/17 Pie sv. Franciska Dainis 9.20 58:00 06:18 9.52 ir
25/05/17 Vakara skrējiens ar Valdu Dainis 1.70 11:30 06:45 8.87 ir
24/05/17 Pie sv. Franciska Dainis 9.20 56:00 06:05 9.86 ir
24/05/17 Rīta skrējiens Dainis 1.70 11:30 06:45 8.87 ir
23/05/17 Rīta skrējiens: ar Valdu Dainis 1.70 11:30 06:45 8.87 ir
22/05/17 Vakara skrējiens ar Valdu Dainis 1.70 11:30 06:45 8.87 ir
22/05/17 Rīta skrējiens: ar Valdu Dainis 1.70 11:30 06:45 8.87 ir
50.00
21/05/17 Pie sv. Franciska Dainis 4.40 28:00 06:21 9.43 ir
21/05/17 Rīta skrējiens: ar Valdu Dainis 1.70 11:30 06:45 8.87 ir
19/05/17 Pie sv. Franciska Dainis 6.00 38:00 06:20 9.47 ir
18/05/17 Pie sv. Franciska Dainis 6.00 37:00 06:10 9.73 ir
18/05/17 Rīta skrējiens: ar Valdu Dainis 1.70 11:30 06:45 8.87 ir
17/05/17 Pie sv. Franciska Dainis 10.80 1:06:00 06:06 9.82 ir
17/05/17 Rīta skrējiens Dainis 1.70 11:30 06:45 8.87 ir
16/05/17 Pie sv. Franciska Dainis 6.00 37:30 06:15 9.60 ir
16/05/17 Rīta skrējiens Dainis 1.70 11:00 06:28 9.27 ir
40.00
13/05/17 Rīta skrējiens: ar Valdu Dainis 1.70 11:30 06:45 8.87 ir
12/05/17 Vakara skrējiens ar Valdu Dainis 1.70 11:30 06:45 8.87 ir
12/05/17 Pie sv. Franciska Dainis 7.60 46:00 06:03 9.91 ir
12/05/17 Rīta skrējiens: ar Valdu Dainis 1.70 11:30 06:45 8.87 ir
11/05/17 Pie sv. Franciska Dainis 6.00 39:00 06:30 9.23 ir
11/05/17 Rīta skrējiens Dainis 3.40 21:00 06:10 9.71 ir
10/05/17 Rīta skrējiens Dainis 1.70 10:30 06:10 9.71 ir
09/05/17 Vakara skrējiens ar Valdu Dainis 1.70 11:30 06:45 8.87 ir
09/05/17 Rīta skrējiens: ar Valdu Dainis 1.70 11:30 06:45 8.87 ir
09/05/17 Pie sv. Franciska Dainis 6.00 38:00 06:20 9.47 ir
08/05/17 Vakara skrējiens ar Valdu Dainis 1.70 11:30 06:45 8.87 ir
08/05/17 Rīta skrējiens: ar Valdu Dainis 1.70 11:30 06:45 8.87 ir
36.60
07/05/17 Vakara skrējiens ar Valdu Dainis 1.70 11:30 06:45 8.87 ir
07/05/17 Rīta skrējiens: ar Valdu Dainis 1.70 11:30 06:45 8.87 ir
06/05/17 Pie sv. Franciska Dainis 9.20 57:00 06:11 9.68 ir
06/05/17 Rīta skrējiens: ar Valdu Dainis 1.70 10:30 06:10 9.71 ir
05/05/17 Vakara skrējiens ar Valdu Dainis 1.70 10:00 05:52 10.20 ir
05/05/17 Pie sv. Franciska Dainis 6.00 38:00 06:20 9.47 ir
05/05/17 Rīta skrējiens: ar Valdu Dainis 1.70 11:30 06:45 8.87 ir
04/05/17 Rīta skrējiens: ar Valdu Dainis 1.70 11:30 06:45 8.87 ir
03/05/17 Vakara skrējiens ar Valdu Dainis 1.70 11:30 06:45 8.87 ir
03/05/17 Pie sv. Franciska Dainis 4.40 28:00 06:21 9.43 ir
02/05/17 Vakara skrējiens ar Valdu Dainis 1.70 11:38 06:50 8.77 ir
02/05/17 Andrejosta. Romantika Dainis 11.24 1:14:00 06:35 9.11 ir
02/05/17 Rīta skrējiens ar Valdu Dainis 1.70 11:00 06:28 9.27 ir
02/05/17 Rīta skrējiens ar Valdu Dainis 1.70 11:00 06:28 9.27 ir
01/05/17 Vakara skrējiens ar Valdu Dainis 1.70 11:30 06:45 8.87 ir
01/05/17 Rīta skrējiens Dainis 1.70 10:30 06:10 9.71 ir
51.24
30/04/17 Rīta skrējiens Dainis 1.70 10:30 06:10 9.71 ir
28/04/17 Rīta skrējiens Dainis 1.70 10:00 05:52 10.20 ir
27/04/17 Pie sv. Franciska Dainis 4.40 28:00 06:21 9.43 ir
27/04/17 Rīta skrējiens Dainis 1.70 10:30 06:10 9.71 ir
26/04/17 krusa birst Dainis 1.00 07:00 07:00 8.57 ir
26/04/17 Rīta skrējiens Dainis 1.70 10:00 05:52 10.20 ir
24/04/17 Rīta skrējiens Dainis 1.70 10:00 05:52 10.20 ir
13.90
23/04/17 Dienvidu tilts Dainis 11.60 1:10:00 06:02 9.94 ir
23/04/17 Rīta skrējiens: ar Valdu Dainis 1.70 12:00 07:03 8.50 ir
22/04/17 Pie sv. Franciska: sacentos ar jaunu puisi Dainis 14.00 1:22:00 05:51 10.24 ir
22/04/17 Rīta skrējiens: ar Valdu Dainis 1.70 12:00 07:03 8.50 ir
20/04/17 Rīta skrējiens Dainis 1.70 11:00 06:28 9.27 ir
19/04/17 Pie sv. Franciska Dainis 6.00 36:00 06:00 10.00 ir
19/04/17 Pie sv. Franciska Dainis 1.70 11:00 06:28 9.27 ir
17/04/17 Pie sv. Franciska: Otrās Lieldienas Dainis 4.40 26:00 05:54 10.15 ir
42.80
15/04/17 Pie sv. Franciska: Klusā sestdiena Dainis 4.40 25:00 05:40 10.56 ir
14/04/17 Pie sv. Franciska: Lielā Piektdiena Dainis 6.00 37:00 06:10 9.73 ir
13/04/17 Pie sv. Franciska: Zaļajā Ceturtdienā Dainis 6.00 40:00 06:40 9.00 ir
11/04/17 Rīta skrējiens: ar Valdu Dainis 1.70 12:00 07:03 8.50 ir
10/04/17 Pie sv. Franciska Dainis 6.00 39:00 06:30 9.23 ir
24.10
09/04/17 Vakara skrējiens Dainis 1.70 10:10 05:58 10.03 ir
09/04/17 Rīta skrējiens Dainis 1.70 10:00 05:52 10.20 ir
08/04/17 Pie sv. Franciska Dainis 6.00 36:00 06:00 10.00 ir
9.40
02/04/17 Vakara skrējiens Dainis 1.70 12:00 07:03 8.50 ir
02/04/17 Pie sv. Franciska Dainis 4.40 30:00 06:49 8.80 ir
01/04/17 Vakara skrējiens ar Valdu Dainis 1.70 12:00 07:03 8.50 ir
31/03/17 Vakara skrējiens ar Valdu Dainis 1.70 11:30 06:45 8.87 ir
31/03/17 Dienas skrējiens Dainis 1.70 11:30 06:45 8.87 ir
30/03/17 Dienvidu tilts Dainis 11.30 1:10:00 06:11 9.69 ir
30/03/17 Rīta skrējiens Dainis 1.70 10:30 06:10 9.71 ir
29/03/17 Vakara skrējiens ar Valdu Dainis 1.70 11:30 06:45 8.87 ir
29/03/17 Pie sv. Franciska Dainis 6.00 34:00 05:40 10.59 ir
29/03/17 Rīta skrējiens Dainis 1.70 11:00 06:28 9.27 ir
28/03/17 Pie sv. Franciska Dainis 9.20 54:00 05:52 10.22 ir
28/03/17 Rīta skrējiens: ar Valdu Dainis 1.70 11:40 06:51 8.74 ir
27/03/17 Pie sv. Franciska Dainis 9.20 56:00 06:05 9.86 ir
53.70
25/03/17 Pie sv. Franciska Dainis 4.40 27:00 06:08 9.78 ir
24/03/17 Rīta skrējiens: ar Valdu Dainis 1.70 11:30 06:45 8.87 ir
23/03/17 Pie sv. Franciska Dainis 6.00 36:00 06:00 10.00 ir
21/03/17 Vakara skrējiens ar Valdu Dainis 1.70 11:30 06:45 8.87 ir
21/03/17 Paskraidīju Dainis 7.80 50:00 06:24 9.36 ir
21.60
19/03/17 Rīta skrējiens: ar Valdu Dainis 1.70 12:00 07:03 8.50 ir
16/03/17 Rīta skrējiens: ar Valdu Dainis 1.70 12:00 07:03 8.50 ir
14/03/17 Pie sv. Franciska Dainis 6.00 38:00 06:20 9.47 ir
9.40
12/03/17 Pēcpusdienas skrējiens( ar Valdu viens aplis) Dainis 3.70 25:00 06:45 8.88 ir
11/03/17 Rīta skrējiens: ar Valdu Dainis 1.70 12:00 07:03 8.50 ir
10/03/17 Pie sv. Franciska Dainis 2.80 20:00 07:08 8.40 ir
06/03/17 Pie sv. Franciska Dainis 4.40 32:00 07:16 8.25 ir
12.60
04/03/17 Vakara skrējiens Dainis 1.70 11:30 06:45 8.87 ir
1.70
19/02/17 Pie sv. Franciska Dainis 6.00 39:00 06:30 9.23 ir
18/02/17 Vakara skrējiens ar Valdu Dainis 1.70 12:00 07:03 8.50 ir
17/02/17 Vakara skrējiens ar Valdu Dainis 1.70 13:00 07:38 7.85 ir
17/02/17 Rīta skrējiens Dainis 1.70 12:00 07:03 8.50 ir
16/02/17 Pie sv. Franciska Dainis 6.00 37:00 06:10 9.73 ir
13/02/17 Romantika, Andrejosta Dainis 11.24 1:12:09 06:25 9.35 ir
13/02/17 Rīta skrējiens Dainis 1.70 11:00 06:28 9.27 ir
30.04
12/02/17 Aplīši, pirmais ar Valdu Dainis 5.10 35:00 06:51 8.74 ir
11/02/17 Pie sv. Franciska Dainis 4.40 28:00 06:21 9.43 ir
11/02/17 Rīta skrējiens: ar Valdu Dainis 1.70 12:40 07:27 8.05 ir
10/02/17 Vakara skrējiens Dainis 1.70 11:00 06:28 9.27 ir
07/02/17 Rīta skrējiens: ar Valdu Dainis 1.70 13:00 07:38 7.85 ir
14.60
05/02/17 Grīziņkalnā Dainis 6.50 39:00 06:00 10.00 ir
05/02/17 Rīta skrējiens: ar Valdu Dainis 1.70 12:45 07:30 8.00 ir
04/02/17 Andrejosta, Ostas skati Dainis 18.47 2:16:25 07:23 8.12 ir
04/02/17 Rīta skrējiens: ar Valdu Dainis 1.70 12:30 07:21 8.16 ir
03/02/17 Pie sv. Franciska Dainis 6.00 39:00 06:30 9.23 ir
03/02/17 Rīta skrējiens: ar Valdu Dainis 1.70 12:50 07:32 7.95 ir
02/02/17 Vakara skrējiens Dainis 1.70 12:00 07:03 8.50 ir
01/02/17 Vakara skrējiens ar Valdu Dainis 1.70 12:00 07:03 8.50 ir
01/02/17 Pie sv. Franciska Dainis 6.00 36:00 06:00 10.00 ir
31/01/17 Vakara skrējiens ar Valdu Dainis 1.70 11:30 06:45 8.87 ir
31/01/17 Pie sv. Franciska Dainis 6.00 38:00 06:20 9.47 ir
31/01/17 Rīta skrējiens: ar Valdu Dainis 1.70 12:00 07:03 8.50 ir
30/01/17 Pie sv. Franciska Dainis 6.00 35:30 05:55 10.14 ir
30/01/17 Rīta skrējiens Dainis 1.70 12:00 07:03 8.50 ir
62.57
29/01/17 Pie sv. Franciska Dainis 6.00 33:00 05:30 10.91 ir
29/01/17 Rīta skrējiens: ar Valdu Dainis 1.70 11:38 06:50 8.77 ir
28/01/17 Rīta skrējiens: ar Valdu Dainis 1.70 11:30 06:45 8.87 ir
27/01/17 Rīta skrējiens Dainis 1.70 12:00 07:03 8.50 ir
26/01/17 Vakara skrējiens Dainis 1.70 12:00 07:03 8.50 ir
12.80
22/01/17 Pie sv. Franciska Dainis 6.00 35:00 05:50 10.29 ir
22/01/17 Rīta skrējiens: 1 riņķis ar Valdu Dainis 3.40 21:00 06:10 9.71 ir
21/01/17 Pie sv. Franciska Dainis 2.80 18:00 06:25 9.33 ir
21/01/17 Rīta skrējiens Dainis 3.40 20:00 05:52 10.20 ir
20/01/17 Rīta skrējiens Dainis 1.70 12:00 07:03 8.50 ir
19/01/17 Pie sv. Franciska Dainis 4.40 30:00 06:49 8.80 ir
18/01/17 Rīta skrējiens Dainis 1.70 11:30 06:45 8.87 ir
17/01/17 Vakara skrējiens Dainis 1.70 11:00 06:28 9.27 ir
17/01/17 Pie sv. Franciska Dainis 4.40 31:00 07:02 8.52 ir
17/01/17 Rīta skrējiens Dainis 1.70 11:00 06:28 9.27 ir
16/01/17 Uz veikaliem Dainis 2.80 20:00 07:08 8.40 ir
16/01/17 Uz ziedot.lv pēc biļetēm Dainis 5.70 40:12 07:03 8.51 ir
16/01/17 Rīta skrējiens Dainis 3.40 22:00 06:28 9.27 ir
43.10
15/01/17 Vakara skrējiens Dainis 1.70 12:00 07:03 8.50 ir
15/01/17 Uz veikalu Dainis 1.10 07:40 06:58 8.61 ir
15/01/17 Andrejosta, Ostas skati Dainis 17.88 2:06:39 07:05 8.47 ir
15/01/17 Rīta skrējiens Dainis 1.70 11:00 06:28 9.27 ir
14/01/17 Vakara skrējiens Dainis 3.40 20:00 05:52 10.20 ir
14/01/17 Pie sv. Franciska Dainis 6.00 41:00 06:50 8.78 ir
13/01/17 Misiones baznīca: ar Olģerta disku Dainis 11.98 1:29:00 07:25 8.08 ir
12/01/17 Vakara skrējiens Dainis 1.70 12:00 07:03 8.50 ir
09/01/17 Ar Valdu Dainis 1.70 12:30 07:21 8.16 ir
09/01/17 Ar Valdu Dainis 1.70 12:30 07:21 8.16 ir
48.86
08/01/17 Ar Valdu Dainis 1.70 12:30 07:21 8.16 ir
07/01/17 Ar Valdu Dainis 1.70 13:30 07:56 7.56 ir
06/01/17 Ar Valdu Dainis 1.70 13:00 07:38 7.85 ir
06/01/17 Grīziņkalnā Dainis 5.20 32:00 06:09 9.75 ir
06/01/17 Ar Valdu Dainis 1.70 13:30 07:56 7.56 ir
05/01/17 Ar Valdu Dainis 1.70 12:00 07:03 8.50 ir
05/01/17 Grīziņkalnā Dainis 6.50 40:00 06:09 9.75 ir
05/01/17 Ar Valdu Dainis 1.70 13:00 07:38 7.85 ir
04/01/17 Ar Valdu Dainis 1.70 13:00 07:38 7.85 ir
04/01/17 Grīziņkalnā īsta ziema! Dainis 9.10 58:00 06:22 9.41 ir
03/01/17 Ar Valdu Dainis 1.70 12:00 07:03 8.50 ir
02/01/17 Pie sv. Franciska Dainis 7.60 48:00 06:18 9.50 ir
42.00
01/01/17 Jaungada skrējiens Dainis 6.00 37:00 06:10 9.73 ir
31/12/16 Pie sv. Franciska Dainis 4.40 28:00 06:21 9.43 ir
30/12/16 Pie sv. Franciska Dainis 4.40 27:00 06:08 9.78 ir
29/12/16 Rīta skrējiens: ar Valdu Dainis 1.70 12:00 07:03 8.50 ir
28/12/16 Grīziņkalnā Dainis 8.70 55:27 06:22 9.41 ir
27/12/16 Pie sv. Franciska Dainis 2.80 19:00 06:47 8.84 ir
28.00
25/12/16 Ziemsvētki, vakarā ar Valdu Dainis 1.70 13:00 07:38 7.85 ir
23/12/16 Ar Valdu Dainis 1.70 13:00 07:38 7.85 ir
22/12/16 Grīziņkalnā un LM fonds Dainis 6.50 42:00 06:27 9.29 ir
21/12/16 Pie sv. Franciska Dainis 7.60 47:00 06:11 9.70 ir
20/12/16 Pie sv. Franciska Dainis 6.00 37:00 06:10 9.73 ir
23.50
15/12/16 Grīziņkalnā Dainis 6.72 44:43 06:39 9.02 ir
14/12/16 Pie sv. Franciska Dainis 6.00 37:00 06:10 9.73 ir
12.72
11/12/16 Valdlauči un Rāmava Dainis 17.00 1:54:05 06:42 8.94 ir
10/12/16 Ostas skati Dainis 16.28 1:58:46 07:17 8.22 ir
09/12/16 Pie sv. Franciska Dainis 9.20 1:01:00 06:37 9.05 ir
07/12/16 Andrejosta Dainis 12.30 1:23:00 06:44 8.89 ir
54.78
03/12/16 Pie sv. Franciska Dainis 2.80 21:00 07:30 8.00 ir
02/12/16 Grīziņkalnā Dainis 6.50 45:00 06:55 8.67 ir
29/11/16 Grīziņkalnā arī ziema! Dainis 6.50 44:00 06:46 8.86 ir
28/11/16 Pie sv. Franciska Dainis 4.40 30:00 06:49 8.80 ir
20.20
27/11/16 Pie sv. Franciska: Pirmajā Adventā Dainis 6.00 43:00 07:10 8.37 ir
26/11/16 Pie sv. Franciska Dainis 6.00 41:00 06:50 8.78 ir
25/11/16 Pie sv. Franciska Dainis 4.40 30:00 06:49 8.80 ir
23/11/16 Pie sv. Franciska Dainis 6.00 42:00 07:00 8.57 ir
22/11/16 Pie sv. Franciska Dainis 6.00 41:00 06:50 8.78 ir
21/11/16 Pie sv. Franciska Dainis 4.40 31:00 07:02 8.52 ir
32.80
20/11/16 Grīziņkalnā Dainis 7.57 48:38 06:25 9.34 ir
19/11/16 Ostas skati Dainis 16.49 1:51:39 06:46 8.86 ir
18/11/16 Grīziņkalnā Dainis 6.24 39:21 06:18 9.51 ir
17/11/16 Grīziņkalnā Dainis 8.80 58:53 06:41 8.97 ir
16/11/16 Pie sv. Franciska Dainis 4.40 30:00 06:49 8.80 ir
15/11/16 Daugavmalā Dainis 14.72 1:42:04 06:56 8.65 ir
58.22
13/11/16 Andrejosta Dainis 12.40 1:25:00 06:51 8.75 ir
09/11/16 Grīziņkalnā Dainis 6.30 39:00 06:11 9.69 ir
07/11/16 Grīziņkalnā Dainis 6.30 40:00 06:20 9.45 ir
25.00
06/11/16 Grīziņkalnā Dainis 3.70 28:00 07:34 7.93 ir
05/11/16 Pie sv. Franciska Dainis 2.80 21:00 07:30 8.00 ir
04/11/16 Pie sv. Franciska Dainis 2.80 21:00 07:30 8.00 ir
31/10/16 Pie sv. Franciska Dainis 4.40 28:00 06:21 9.43 ir
13.70
29/10/16 Pie sv. Franciska Dainis 6.00 39:00 06:30 9.23 ir
24/10/16 Pie sv. Franciska Dainis 6.00 38:00 06:20 9.47 ir
12.00
20/10/16 Pie sv. Franciska Dainis 6.00 39:00 06:30 9.23 ir
19/10/16 Andrejosta Dainis 11.80 1:17:08 06:32 9.18 ir
18/10/16 Pie sv. Franciska Dainis 6.00 37:00 06:10 9.73 ir
23.80
14/10/16 Pie sv. Franciska Dainis 2.80 19:00 06:47 8.84 ir
13/10/16 stacija Dainis 1.50 10:00 06:40 9.00 ir
12/10/16 Pie sv. Franciska Dainis 6.00 40:00 06:40 9.00 ir
11/10/16 Pie sv. Franciska Dainis 4.40 30:00 06:49 8.80 ir
10/10/16 Andrejosta Dainis 11.80 1:09:03 05:51 10.25 ir
26.50
09/10/16 Pie sv. Franciska Dainis 6.00 41:00 06:50 8.78 ir
08/10/16 stacija Dainis 1.50 10:00 06:40 9.00 ir
07/10/16 Pie sv. Franciska Dainis 4.40 27:54 06:20 9.46 ir
05/10/16 Pēc kastaņiem Dainis 5.00 35:00 07:00 8.57 ir
04/10/16 Pie sv. Franciska Dainis 6.00 38:00 06:20 9.47 ir
22.90
01/10/16 Isabelle & Ostas skati Dainis 19.02 2:05:45 06:36 9.08 ir
29/09/16 Pie sv. Franciska Dainis 9.20 1:00:00 06:31 9.20 ir
27/09/16 Pie sv. Franciska Dainis 6.00 37:00 06:10 9.73 ir
26/09/16 Nac th & Ķīpsala Dainis 12.91 1:26:18 06:41 8.98 ir
47.13
25/09/16 Isabelle Dainis 12.00 1:12:00 06:00 10.00 ir
24/09/16 Pie sv. Franciska Dainis 6.00 36:00 06:00 10.00 ir
23/09/16 Pie sv. Franciska Dainis 4.40 28:00 06:21 9.43 ir
22/09/16 Daugavmalā Dainis 10.49 1:02:15 05:56 10.11 ir
21/09/16 Pie sv. Franciska Dainis 6.00 36:00 06:00 10.00 ir
19/09/16 Pie sv. Franciska Dainis 4.40 27:00 06:08 9.78 ir
43.29
18/09/16 m.maratons Ķengaragā Dainis 21.10 2:08:21 06:04 9.86 ir
17/09/16 Ar Valdu parkā Dainis 5.43 37:20 06:52 8.73 ir
16/09/16 Seven seas voyager, Ostas skati Dainis 17.72 1:53:00 06:22 9.41 ir
15/09/16 Pie sv. Franciska Dainis 6.00 40:00 06:40 9.00 ir
14/09/16 Andrejosta Dainis 12.39 1:19:59 06:27 9.29 ir
13/09/16 Pie sv. Franciska Dainis 6.00 38:00 06:20 9.47 ir
12/09/16 Pie sv. Franciska Dainis 6.00 36:00 06:00 10.00 ir
74.64
11/09/16 Dienvidu tilts Dainis 11.49 1:14:44 06:30 9.22 ir
10/09/16 Andrejosta, Ostas skati Dainis 18.21 2:01:16 06:39 9.01 ir
08/09/16 Pie sv. Franciska Dainis 6.00 37:00 06:10 9.73 ir
06/09/16 Pie sv. Franciska Dainis 4.40 29:00 06:35 9.10 ir
05/09/16 Dienvidu tilts Dainis 10.94 1:07:37 06:10 9.71 ir
51.04
01/09/16 Costa Pacifica, Ostas skati, 6 gadi skrienot Dainis 18.18 1:57:38 06:28 9.27 ir
29/08/16 lielv. Dainis 7.80 48:20 06:11 9.68 ir
25.98
28/08/16 lielv. Dainis 13.32 1:24:00 06:18 9.51 ir
27/08/16 lielv. Dainis 9.50 1:00:00 06:18 9.50 ir
24/08/16 lilelv. Dainis 3.00 18:00 06:00 10.00 ir
24/08/16 lilelv. Dainis 7.00 42:00 06:00 10.00 ir
32.82
21/08/16 lielv.ar Valdu Dainis 8.28 1:03:00 07:36 7.89 ir
18/08/16 lielv. Dainis 3.00 19:00 06:20 9.47 ir
11.28
12/08/16 lielv. Dainis 2.80 18:00 06:25 9.33 ir
11/08/16 lielv. Dainis 3.00 19:00 06:20 9.47 ir
09/08/16 Mazais Rembates aplis Dainis 8.51 53:17 06:15 9.58 ir
08/08/16 lielv. Dainis 7.36 45:30 06:10 9.71 ir
21.67
05/08/16 lielv. Dainis 3.00 18:00 06:00 10.00 ir
03/08/16 lielv. Dainis 2.80 17:00 06:04 9.88 ir
5.80
25/07/16 lielv. Dainis 2.80 16:55 06:02 9.93 ir
2.80
21/07/16 lielv. Dainis 2.80 17:00 06:04 9.88 ir
20/07/16 lielv. Dainis 2.80 17:00 06:04 9.88 ir
19/07/16 lielv. Dainis 2.89 17:17 05:58 10.03 ir
8.49
17/07/16 Aizkraukle Dainis 0.40 01:56 04:50 12.41 ir
17/07/16 Aizkraukle Dainis 5.00 28:33 05:42 10.51 ir
17/07/16 Aizraukle, ies.ats. Dainis 3.00 11:00 03:40 16.36 ir
16/07/16 Aizkraukle Dainis 1.50 07:34 05:02 11.89 ir
16/07/16 Aizkraukle, ies.ats. Dainis 5.00 33:00 06:36 9.09 ir
14/07/16 lielv. Dainis 9.03 55:00 06:05 9.85 ir
11/07/16 lielv. Dainis 2.80 17:00 06:04 9.88 ir
26.73
07/07/16 Lielv. Dainis 2.82 17:20 06:08 9.76 ir
05/07/16 Lielv. Dainis 3.06 17:25 05:41 10.54 ir
04/07/16 Lielv. Dainis 2.90 20:00 06:53 8.70 ir
8.78
02/07/16 Lielvārdē Dainis 6.50 47:00 07:13 8.30 ir
01/07/16 lielv. Dainis 2.80 20:00 07:08 8.40 ir
9.30
25/06/16 LSC stadionā ar simtiņu Dainis 3.50 24:00 06:51 8.75 ir
23/06/16 Lielvārdē Līgo dienā Dainis 7.36 48:00 06:31 9.20 ir
10.86
19/06/16 Ventspils maratons Dainis 21.10 1:56:36 05:31 10.86 ir
18/06/16 Lielvārdē ar Valdu Dainis 9.79 1:00:00 06:07 9.79 ir
17/06/16 Lielvārdē ar Valdu Dainis 7.00 50:00 07:08 8.40 ir
37.89
12/06/16 Lielvārdē Dainis 10.90 1:09:00 06:19 9.48 ir
09/06/16 Lielvārdē Dainis 12.08 1:08:00 05:37 10.66 ir
07/06/16 Lielvārdē Dainis 10.88 1:03:00 05:47 10.36 ir
33.86
05/06/16 Lielvārdē Dainis 6.03 35:00 05:48 10.34 ir
03/06/16 Lidosta Dainis 13.01 1:24:21 06:29 9.25 ir
02/06/16 Lielvārdē Dainis 10.10 1:00:00 05:56 10.10 ir
02/06/16 Pēc trīs apļiem dārzā Dainis 8.89 55:21 06:13 9.64 ir
01/06/16 Lielvārdē Dainis 9.21 57:34 06:15 9.60 ir
47.24
29/05/16 LSC 5 km Dainis 5.00 25:34 05:06 11.73 ir
29/05/16 ies./ats. Dainis 2.00 14:00 07:00 8.57 ir
23/05/16 Pie sv. Franciska Dainis 6.00 37:00 06:10 9.73 ir
13.00
22/05/16 Pie sv. Franciska Dainis 6.00 38:00 06:20 9.47 ir
21/05/16 Pie sv. Franciska Dainis 4.40 30:00 06:49 8.80 ir
20/05/16 Pie sv. Franciska: rīta skrējiens Dainis 6.00 32:00 05:20 11.25 ir
19/05/16 Pie sv. Franciska: vakara skrējiens Dainis 6.00 37:00 06:10 9.73 ir
19/05/16 Pie sv. Franciska Dainis 9.20 58:00 06:18 9.52 ir
16/05/16 Pie sv. Franciska Dainis 6.00 35:00 05:50 10.29 ir
37.60
15/05/16 mazais r/m Dainis 1.00 06:00 06:00 10.00
14/05/16 Pie sv. Franciska Dainis 2.80 17:00 06:04 9.88 ir
12/05/16 Pie sv. Franciska Dainis 6.00 36:00 06:00 10.00 ir
11/05/16 Pie sv. Franciska Dainis 2.80 19:00 06:47 8.84 ir
12.60
07/05/16 Kronvalda parkā Dainis 5.00 26:12 05:14 11.45 ir
05/05/16 Ostā spāņu kuģis Dainis 11.87 1:15:00 06:19 9.50 ir
04/05/16 Pie sv. Franciska Dainis 4.40 28:00 06:21 9.43 ir
21.27
01/05/16 Valdas trasē Dainis 1.70 13:00 07:38 7.85 ir
30/04/16 Biķernieku pusmaratons Dainis 21.10 2:08:47 06:06 9.83 ir
30/04/16 ies/ats Dainis 2.37 20:00 08:26 7.11 ir
29/04/16 Pie sv. Franciska Dainis 6.00 34:00 05:40 10.59 ir
28/04/16 Pie sv. Franciska Dainis 6.00 37:00 06:10 9.73 ir
27/04/16 Pie sv. Franciska Dainis 6.00 34:00 05:40 10.59 ir
26/04/16 Jaunas kurpes!!!! Dainis 2.80 19:00 06:47 8.84 ir
25/04/16 Klusajā dārzā ar Valdu Dainis 3.94 27:52 07:04 8.48 ir
49.91
23/04/16 izstāšanās Dainis 2.81 14:51 05:17 11.35 ir
23/04/16 LSC atklātais čempionāts stadiona skrējienos, 1. kārta Dainis 1.50 07:10 04:46 12.56 ir
23/04/16 ies/ats Dainis 3.16 22:00 06:57 8.62 ir
21/04/16 Andrejosta un Ostas skatiL skrienam kopā ar Georgu Ņujorkā Dainis 18.21 2:00:27 06:36 9.07 ir
19/04/16 Lietus, krusa, saule Dainis 2.80 18:00 06:25 9.33 ir
18/04/16 Andrejosta & Isabelle Dainis 12.05 1:17:06 06:23 9.38 ir
40.53
17/04/16 Pie sv. Franciska Dainis 6.00 37:00 06:10 9.73 ir
16/04/16 Pie sv. Franciska Dainis 2.80 18:00 06:25 9.33 ir
13/04/16 Pie sv. Franciska Dainis 7.60 45:00 05:55 10.13 ir
12/04/16 Daugavmalā abos krastos Dainis 18.46 2:00:16 06:30 9.21 ir
11/04/16 Pie sv. Franciska Dainis 4.40 27:00 06:08 9.78 ir
39.26
10/04/16 LSC atklātais čempionāts šosejas skrējienos, 1. kārta – X Mežaparka LSC pusmaratons Dainis 21.10 2:00:54 05:43 10.47 ir
10/04/16 ies./ats. Dainis 1.50 10:00 06:40 9.00 ir
09/04/16 Pie sv. Franciska: vakara skrējiens Dainis 4.40 27:00 06:08 9.78 ir
08/04/16 Valdas trasē Dainis 1.70 11:00 06:28 9.27 ir
07/04/16 Pie sv. Franciska: rīta skrējiens Dainis 4.40 27:00 06:08 9.78 ir
06/04/16 Pie sv. Franciska: vakara skrējiens Dainis 6.00 36:00 06:00 10.00 ir
05/04/16 Pie sv. Franciska: vakara skrējiens Dainis 7.60 54:00 07:06 8.44 ir
05/04/16 Pie sv. Franciska: rīta skrējiens Dainis 2.80 19:00 06:47 8.84 ir
04/04/16 Rīta skrējiens: pēc puķēm Dainis 2.70 18:00 06:40 9.00 ir
52.20
03/04/16 gulbju pietātne Dainis 16.07 1:34:00 05:50 10.26 ir
02/04/16 Grīziņkalnā: vakara skrējiens Dainis 7.44 45:39 06:08 9.78 ir
02/04/16 Pie sv. Franciska: rīta skrējiens Dainis 2.80 16:00 05:42 10.50 ir
01/04/16 Ostas skati Dainis 16.69 1:45:00 06:17 9.54 ir
31/03/16 Mierielas tesiņš Dainis 6.50 43:03 06:37 9.06 ir
31/03/16 Bēdziens no lietus Dainis 7.84 49:38 06:19 9.48 ir
30/03/16 Pie sv. Franciska: rīta skrējiens Dainis 9.20 57:00 06:11 9.68 ir
29/03/16 Priecīgas Trešās Lieldienas!!! Dainis 21.42 2:09:29 06:02 9.93 ir
28/03/16 Priecīgas Otrās Lieldienas! Dainis 18.41 1:48:00 05:51 10.23 ir
106.37
27/03/16 Priecīgas Lieldienas! Dainis 18.33 2:02:00 06:39 9.01 ir
26/03/16 LSC ”Veselības skrējieni” Grīziņkalnā, 6. kārta Dainis 8.00 43:10 05:23 11.12 ir
26/03/16 ies/ats Dainis 3.25 23:13 07:08 8.40 ir
25/03/16 Alvaro de Bazan, Cantabria un Iron Duke, un mazais tos pieskata Dainis 18.33 1:58:26 06:27 9.29 ir
24/03/16 PIeci kara kuģīši ostā ieskaitot vienvietīgo Dainis 22.06 2:25:21 06:35 9.11 ir
23/03/16 Daugavmalā Dainis 16.44 1:54:44 06:58 8.60 ir
22/03/16 Daugavmlā Dainis 22.18 2:35:01 06:59 8.58 ir
21/03/16 RP ostā no vienas puses un Ostas Skatos no otras puses apskatīju Isabelle no abām pusēm Dainis 22.24 2:30:19 06:45 8.88 ir
130.83
20/03/16 Arkādina, Lutera baznīca un uz mājām Dainis 6.31 46:27 07:21 8.15 ir
20/03/16 Atsildīšanās Dainis 1.02 07:39 07:30 8.00 ir
20/03/16 Šri Cimnoj divas jūdzes Dainis 3.20 17:18 05:24 11.10 ir
20/03/16 Iesildīšanās Dainis 0.85 06:07 07:11 8.34 ir
20/03/16 Līdz Arkādijai Dainis 4.80 33:02 06:52 8.72 ir
19/03/16 RP osta un Ostas Skati Dainis 18.50 2:04:00 06:42 8.95 ir
18/03/16 Pie sv. Franciska: vakara skrējiens Dainis 7.60 52:00 06:50 8.77 ir
18/03/16 Pie sv. Franciska: rīta skrējiens Dainis 9.20 1:00:30 06:34 9.12 ir
17/03/16 Pie sv. Franciska: vakara skrējiens Dainis 9.20 58:00 06:18 9.52 ir
17/03/16 29.februāra maršruts Dainis 11.30 1:08:37 06:04 9.88 ir
16/03/16 Pie sv. Franciska: vakara skrējiens Dainis 9.20 58:00 06:18 9.52 ir
16/03/16 29.februāra maršruts: Dienvidu tilts Dainis 11.30 1:15:08 06:38 9.02 ir
15/03/16 Pie sv. Franciska: vakara skrējiens Dainis 7.60 45:00 05:55 10.13 ir
15/03/16 Pie sv. Franciska: rīta skrējiens Dainis 9.20 1:04:00 06:57 8.63 ir
14/03/16 Pie sv. Franciska: vakara skrējiens Dainis 9.20 1:00:00 06:31 9.20 ir
14/03/16 Daugavmalā Dainis 6.72 49:12 07:19 8.20 ir
125.20
13/03/16 Ostas skati Dainis 16.77 1:58:02 07:02 8.52 ir
12/03/16 LSC ”Veselības skrējieni” Grīziņkalnā, 5. kārta Dainis 4.00 20:37 05:09 11.64 ir
12/03/16 ies.ats. Dainis 3.00 21:00 07:00 8.57 ir
11/03/16 Pie sv. Franciska: rīta skrējiens Dainis 7.60 53:00 06:58 8.60 ir
10/03/16 Pie sv. Franciska: vakara skrējiens Dainis 7.60 48:00 06:18 9.50
10/03/16 Pie sv. Franciska: rīta skrējiens Dainis 9.20 1:05:00 07:03 8.49 ir
09/03/16 Pie sv. Franciska: vakara skrējiens Dainis 9.20 1:04:00 06:57 8.63 ir
09/03/16 Pie sv. Franciska: rīta skrējiens Dainis 7.60 52:00 06:50 8.77 ir
08/03/16 Pie sv. Franciska: vakara skrējiens Dainis 7.60 47:00 06:11 9.70 ir
08/03/16 Pie sv. Franciska: rīta skrējiens Dainis 10.80 1:15:00 06:56 8.64 ir
07/03/16 Pie sv. Franciska: vakara skrējiens Dainis 9.20 57:00 06:11 9.68 ir
07/03/16 Pie sv. Franciska: rīta skrējiens Dainis 9.20 1:02:00 06:44 8.90 ir
101.77
06/03/16 Skrējiens pa pilsētu Dainis 17.48 2:00:44 06:54 8.69 ir
05/03/16 Pie sv. Franciska: rīta skrējiens Dainis 9.20 1:04:00 06:57 8.63 ir
04/03/16 Pie sv. Franciska: vakara skrējiens Dainis 12.40 1:18:00 06:17 9.54 ir
04/03/16 Pie sv. Franciska: rīta skrējiens Dainis 7.60 54:00 07:06 8.44 ir
03/03/16 Pie sv. Franciska: vakara skrējiens Dainis 9.20 1:00:00 06:31 9.20 ir
03/03/16 Pie sv. Franciska: rīta skrējiens Dainis 10.80 1:16:00 07:02 8.53 ir
02/03/16 Pie sv. Franciska: vakara skrējiens Dainis 10.80 1:10:00 06:28 9.26 ir
02/03/16 Pie sv. Franciska: rīta skrējiens Dainis 9.20 1:04:00 06:57 8.63 ir
01/03/16 Pie sv. Franciska: vakara skrējiens Dainis 10.80 1:11:00 06:34 9.13 ir
01/03/16 Pie sv. Franciska: rīta skrējiens Dainis 9.20 59:00 06:24 9.36 ir
29/02/16 Pie sv. Franciska Dainis 9.20 54:00 05:52 10.22 ir
29/02/16 Dienvidu tilts Dainis 11.30 1:18:08 06:54 8.68 ir
127.18
28/02/16 Pie sv. Franciska Dainis 6.00 39:00 06:30 9.23 ir
27/02/16 veterānu sporta spēles Dainis 3.00 15:37 05:12 11.53 ir
27/02/16 veterānu sporta spēles Dainis 1.50 06:55 04:36 13.01 ir
27/02/16 ies/ats. Dainis 8.00 55:00 06:52 8.73 ir
26/02/16 Pie sv. Franciska Dainis 4.40 30:00 06:49 8.80 ir
25/02/16 Pie sv. Franciska Dainis 6.00 35:09 05:51 10.24 ir
24/02/16 Dienvidu tilts Dainis 11.00 1:14:00 06:43 8.92 ir
22/02/16 Pie sv. Franciska Dainis 2.80 18:00 06:25 9.33 ir
42.70
21/02/16 Sētnieku ģenerālstreiks: atkritējus atdos ņam.ņam cilts indiāņiem Dainis 12.01 1:24:13 07:00 8.56 ir
18/02/16 Ostā Isabelle Dainis 13.43 1:31:21 06:48 8.82 ir
16/02/16 Pie sv. Franciska Dainis 11.14 1:12:35 06:30 9.21 ir
36.58
14/02/16 Daugavas stadions Dainis 10.29 1:10:10 06:49 8.80 ir
13/02/16 LSC ”Veselības skrējieni” Grīziņkalnā, 4. kārta Dainis 4.00 20:40 05:10 11.61 ir
13/02/16 ies/ats Dainis 1.00 07:00 07:00 8.57 ir
10/02/16 Pie sv. Franciska Dainis 12.80 1:12:00 05:37 10.67 ir
09/02/16 Pie sv. Franciska Dainis 6.00 36:00 06:00 10.00 ir
34.09
07/02/16 Pie sv. Franciska Dainis 10.80 1:11:11 06:35 9.10 ir
06/02/16 Pie sv. Franciska Dainis 7.60 48:00 06:18 9.50 ir
05/02/16 Pie sv. Franciska Dainis 6.00 40:00 06:40 9.00 ir
24.40
30/01/16 LSC ”Veselības skrējieni” Grīziņkalnā, 3. kārta Dainis 4.00 22:40 05:40 10.59 ir
30/01/16 ies./ats. Dainis 2.60 19:00 07:18 8.21 ir
6.60
24/01/16 Osta hibernējusies Dainis 11.34 1:16:33 06:45 8.89 ir
23/01/16 Zaķis mācās necilpot Grīziņkalnā Dainis 6.91 45:41 06:36 9.08 ir
22/01/16 Pie sv. Franciska Dainis 4.40 30:00 06:49 8.80 ir
21/01/16 Pie sv. Franciska Dainis 6.00 39:57 06:39 9.01 ir
19/01/16 Pie sv. Franciska Dainis 6.00 38:00 06:20 9.47 ir
18/01/16 Pie sv. Franciska Dainis 6.00 37:00 06:10 9.73 ir
40.65
17/01/16 p/m Dainis 21.10 2:21:00 06:40 8.98 ir
15/01/16 Pie sv. Franciska Dainis 6.00 37:00 06:10 9.73 ir
14/01/16 Pie sv. Franciska Dainis 6.00 34:00 05:40 10.59 ir
13/01/16 Pie sv. Franciska Dainis 6.00 36:00 06:00 10.00 ir
11/01/16 Pie sv. Franciska: putenītī Dainis 6.00 40:00 06:40 9.00 ir
45.10
09/01/16 LSC ”Veselības skrējieni” Grīziņkalnā, 2. kārta Dainis 4.00 22:51 05:42 10.50 ir
09/01/16 ies/ats Dainis 2.90 19:00 06:33 9.16 ir
06/01/16 Zvaigznes dienā Dainis 5.53 36:00 06:30 9.22 ir
12.43
02/01/16 LSC ”Veselības skrējieni” Grīziņkalnā, 1. kārta Dainis 6.00 37:58 06:19 9.48 ir
02/01/16 ies/a ts Dainis 3.10 19:00 06:07 9.79
01/01/16 Jaungada skrējiens Dainis 6.00 37:00 06:10 9.73 ir
28/12/15 Pie sv. Franciska Dainis 4.40 29:00 06:35 9.10 ir
19.50
26/12/15 Pie sv. Franciska Dainis 7.60 45:00 05:55 10.13 ir
24/12/15 Pie sv. Franciska Dainis 6.00 36:00 06:00 10.00 ir
22/12/15 Pie sv. Franciska Dainis 7.60 45:00 05:55 10.13 ir
21.20
19/12/15 LSC seriāla “Veselība-2015″ 10. kārta Dainis 8.00 42:50 05:21 11.21 ir
19/12/15 ies/ats Dainis 1.00 07:00 07:00 8.57 ir
16/12/15 Pie sv. Franciska Dainis 12.40 1:14:00 05:58 10.05 ir
15/12/15 Pie sv. Franciska Dainis 4.40 26:00 05:54 10.15 ir
25.80
12/12/15 Pie sv. Franciska Dainis 6.00 39:00 06:30 9.23 ir
11/12/15 Pie sv. Franciska Dainis 6.00 38:00 06:20 9.47 ir
09/12/15 Pie sv.Franciska Dainis 6.00 37:00 06:10 9.73 ir
18.00
05/12/15 LSC seriāla “Veselība-2015″ 9. kārta Dainis 4.00 22:16 05:34 10.78 ir
05/12/15 ies.ats. Dainis 2.30 16:00 06:57 8.63 ir
02/12/15 Dienvidu tilts Dainis 10.75 1:09:44 06:29 9.25 ir
01/12/15 PO Dainis 11.95 1:14:00 06:11 9.69 ir
30/11/15 Pie sv. Franciska Dainis 4.40 29:45 06:45 8.87 ir
33.40
28/11/15 Pie sv.Franciska Dainis 6.00 36:00 06:00 10.00 ir
26/11/15 Pie sv.Franciska Dainis 6.00 35:00 05:50 10.29 ir
25/11/15 Pie sv.Franciska Dainis 6.00 36:00 06:00 10.00 ir
23/11/15 Pie sv. Franciska: ziema, nu, kaut kas no... Dainis 6.00 36:00 06:00 10.00 ir
24.00
21/11/15 LSC seriāla “Veselība-2015″ 8. kārta Dainis 10.00 53:20 05:20 11.25 ir
21/11/15 ies./ats. Dainis 2.00 13:00 06:30 9.23 ir
18/11/15 Rembates apļi Dainis 10.80 1:01:10 05:39 10.59 ir
16/11/15 Lielais Kristaps Dainis 9.80 59:00 06:01 9.97 ir
32.60
14/11/15 Pie sv.Franciska Dainis 4.40 26:00 05:54 10.15 ir
11/11/15 RMDV Dainis 6.00 40:00 06:40 9.00 ir
10/11/15 Pie sv. Franciska Dainis 7.60 47:00 06:11 9.70 ir
09/11/15 Pie sv.Franciska Dainis 9.20 1:00:00 06:31 9.20 ir
27.20
07/11/15 LSC seriāla “Veselība-2015″ 7. kārta Dainis 8.00 44:37 05:34 10.76 ir
05/11/15 Pie sv. Franciska Dainis 6.00 40:00 06:40 9.00 ir
04/11/15 Pie sv. Franciska Dainis 7.60 48:54 06:26 9.33 ir
02/11/15 Kurjera darbs ar Lennox plakātiem Dainis 8.92 1:03:25 07:06 8.44 ir
30.52
01/11/15 Pasažieru osta Dainis 11.00 1:10:00 06:21 9.43 ir
28/10/15 Līdz Pasažieru ostai Dainis 11.39 1:13:30 06:27 9.30 ir
26/10/15 Dienvidu tilts Dainis 10.36 1:04:00 06:10 9.71 ir
32.75
24/10/15 LSC atklātais čempionāts šosejas skrējienos, 7. kārta Dainis 5.00 24:38 04:55 12.18 ir
24/10/15 ies/ats Dainis 2.20 15:00 06:49 8.80 ir
22/10/15 :Pie sv. Franciska Dainis 4.40 26:00 05:54 10.15 ir
20/10/15 Līdz ostai Dainis 13.55 1:24:11 06:12 9.66 ir
25.15
18/10/15 Ozolnieku pusmaratons Dainis 21.10 2:01:53 05:46 10.39 ir
18/10/15 ies./ Dainis 2.02 13:00 06:26 9.32 ir
17/10/15 Pie sv. Franciska Dainis 4.40 26:00 05:54 10.15 ir
14/10/15 Vanšu tilts Dainis 9.88 1:03:51 06:27 9.28 ir
12/10/15 Pie sv. Franciska Dainis 3.80 23:00 06:03 9.91 ir
41.20
10/10/15 Siguldas pusmaratons Dainis 21.10 2:05:12 05:56 10.11 ir
09/10/15 Pie sv. Franciska Dainis 4.40 25:00 05:40 10.56 ir
07/10/15 Lielais Kristaps rudenī Dainis 9.30 56:00 06:01 9.96 ir
06/10/15 nosalu Dainis 1.00 06:00 06:00 10.00 ir
05/10/15 Pie sv.Franciska Dainis 4.40 28:00 06:21 9.43 ir
40.20
03/10/15 LSC atklātais čempionāts stadiona skrējienos, 7. kārta Dainis 3.00 14:20 04:46 12.56 ir
03/10/15 ies/ats Dainis 5.20 40:00 07:41 7.80 ir
01/10/15 PIe sv.Franciska Dainis 4.40 28:00 06:21 9.43 ir
29/09/15 Pie sv.Franciska Dainis 4.40 28:00 06:21 9.43 ir
28/09/15 Pie sv.Franciska Dainis 4.40 26:00 05:54 10.15 ir
21.40
26/09/15 LSC atklātais čempionāts šosejas skrējienos, 6. kārta Dainis 5.00 24:52 04:58 12.06 ir
26/09/15 ies./ats. Dainis 1.20 08:00 06:40 9.00 ir
22/09/15 AIDAcara Genova Rīgas centrā Dainis 10.23 1:03:02 06:09 9.74 ir
16.43
20/09/15 Valmieras maratons Dainis 21.10 1:54:11 05:24 11.09 ir
18/09/15 Pie sv. Franciska Dainis 4.35 26:01 05:58 10.03 ir
17/09/15 Pie sv.Franciska Dainis 4.36 26:13 06:00 9.98 ir
16/09/15 Seven Seas Voyager Rīgas centrā! Dainis 11.92 1:10:56 05:57 10.08 ir
14/09/15 Dienvidu tilts Dainis 12.71 1:16:29 06:01 9.97 ir
54.44
13/09/15 Gājiens pie Olģertiņa Dainis 11.73 ir
12/09/15 Lucavsalā Izskrien Rīgu Dainis 5.00 23:37 04:43 12.70 ir
10/09/15 Daugavmalā Dainis 20.04 2:09:56 06:29 9.25 ir
09/09/15 Lielais Kristaps Dainis 8.87 59:26 06:42 8.95 ir
08/09/15 Līdz Gunčam Dambja ielā Dainis 10.50 1:04:56 06:11 9.70 ir
07/09/15 Ar Valdu Dainis 4.50 30:00 06:40 9.00 ir
60.64
06/09/15 LSC atklātais čempionāts stadiona skrējienos, 6. kārta Dainis 5.00 26:10 05:14 11.46 ir
06/09/15 LSC atklātais čempionāts stadiona skrējienos, 6. kārta Dainis 1.50 06:29 04:19 13.88 ir
06/09/15 ies/ats Dainis 3.00 25:29 08:29 7.06 ir
04/09/15 Līdz Gunčam Dambja ielā Dainis 10.72 1:03:21 05:54 10.15 ir
01/09/15 Pirms pieciem gadiem pirmais ieraksts: 2.8 km 17:00 Dainis 2.80 16:33 05:54 10.15 ir
23.02
30/08/15 Sveika, Isabelle! Atkal esam Rīgā Dainis 13.40 1:21:00 06:02 9.93 ir
28/08/15 Ezeriņi Dainis 6.00 34:00 05:40 10.59 ir
25/08/15 Ar Valdu Dainis 6.00 42:00 07:00 8.57 ir
25.40
22/08/15 Klusajā dārzā Dainis 5.00 25:00 05:00 12.00 ir
22/08/15 ies/ats Dainis 2.00 18:00 09:00 6.67 ir
19/08/15 Uz Glāzšķūņa šosejas Dainis 18.04 1:52:00 06:12 9.66 ir
18/08/15 Ar Valdu Dainis 7.52 51:00 06:46 8.85 ir
17/08/15 Lielvārdē Dainis 8.98 50:00 05:34 10.78 ir
41.54
15/08/15 Kuldīgas pusmaratons Dainis 21.10 1:49:37 05:11 11.55 ir
13/08/15 Līdz Ezeriņiem Dainis 6.00 35:00 05:50 10.29 ir
11/08/15 Papardes un vel druscin Dainis 22.20 2:23:00 06:26 9.31 ir
10/08/15 Ar Valdu Dainis 4.30 30:00 06:58 8.60 ir
53.60
08/08/15 stundas skrējiens Dainis 9.16 1:00:00 06:33 9.16 ir
08/08/15 ies/ats Dainis 3.00 20:00 06:40 9.00 ir
07/08/15 Ezeriņi Rembatē Dainis 6.00 35:00 05:50 10.29 ir
06/08/15 Ezeriņi Rembatē Dainis 6.00 36:00 06:00 10.00 ir
05/08/15 Ezeriņi Rembatē Dainis 6.00 33:00 05:30 10.91 ir
03/08/15 Līdz Rembates ceļam: Valda ar velo Dainis 8.92 45:00 05:02 11.89 ir
39.08
01/08/15  LSC atklātais čempionāts šosejas skrējienos 4.kārta 5km-15km Mežaparka estrāde  Dainis 15.00 1:17:14 05:08 11.65 ir
01/08/15 ies.ats Dainis 3.00 18:00 06:00 10.00
18.00
26/07/15 LSC atklātais čempionāts stadiona skrējienos 4.kārta 100m-600mč-5000mč stad,Daug Dainis 5.00 22:50 04:34 13.14 ir
26/07/15 ies/ats Dainis 3.20 19:00 05:56 10.11 ir
24/07/15 Lielais Rembates riņķis Dainis 14.85 1:34:00 06:19 9.48 ir
22/07/15 Rembates aplis Dainis 8.50 52:00 06:07 9.81 ir
31.55
19/07/15 Bauska,veterānu sporta spēles Dainis 5.00 23:00 04:36 13.04 ir
19/07/15 Bauska: ies/ats Dainis 3.32 25:00 07:31 7.97 ir
18/07/15 Bauska,veterānu sporta spēles Dainis 1.50 06:21 04:14 14.17 ir
18/07/15 Bauska,veterānu sporta spēles Dainis 0.40 01:22 03:25 17.56 ir
18/07/15 Bauska: ies/ats Dainis 4.53 28:00 06:10 9.71 ir
14/07/15 Paatrinajumi Dainis 8.90 51:00 05:43 10.47 ir
13/07/15 Rembates aplis Dainis 8.40 45:00 05:21 11.20 ir
32.05
11/07/15 Jelgavas nakts pusmaratons Dainis 21.10 1:51:08 05:16 11.39 ir
09/07/15 Ar Valdu Lilelvārdē Dainis 3.00 28:00 09:20 6.43 ir
08/07/15 Līdz lietutiņam Dainis 7.00 40:00 05:42 10.50 ir
07/07/15 Rembates riņķis Dainis 8.50 47:00 05:31 10.85 ir
39.60
05/07/15 Ar Valdu līdz Ezeriņiem Dainis 5.64 51:00 09:02 6.64 ir
01/07/15 Rembates riņķis Dainis 8.50 46:00 05:24 11.09 ir
14.14
28/06/15 Daugavmalā Dainis 11.37 1:08:33 06:01 9.95 ir
27/06/15 Rembates riņķis Dainis 8.50 46:17 05:26 11.02 ir
27/06/15 Līdz Ezeriņiem Dainis 6.06 33:43 05:33 10.78 ir
26/06/15 Rembates riņķis Dainis 8.50 51:00 06:00 10.00 ir
34.43
21/06/15 Ventspils p/m Dainis 21.10 1:46:21 05:02 11.90 ir
20/06/15 LSC atklātais čempionāts stadiona skrējienos, 3. kārta Dainis 5.00 24:27 04:53 12.27 ir
20/06/15 LSC atklātais čempionāts stadiona skrējienos, 3. kārta Dainis 1.00 04:03 04:03 14.81 ir
20/06/15 ies/ats Dainis 3.00 20:00 06:40 9.00 ir
17/06/15 Treniņš ar Valdu Dainis 5.88 44:11 07:30 7.98 ir
16/06/15 Rembates riņķis Lielvārdē Dainis 10.50 55:00 05:14 11.45 ir
15/06/15 Lielvārdē Dainis 8.50 50:00 05:52 10.20 ir
54.98
14/06/15 Lielvārdē Dainis 5.90 29:24 04:58 12.04 ir
14/06/15 Treniņš ar Valdu Dainis 7.30 1:00:00 08:13 7.30 ir
13/06/15 Iskrrien parkus: Arkādija Dainis 6.33 31:22 04:57 12.11 ir
13/06/15 ies/ats Dainis 1.50 09:00 06:00 10.00 ir
12/06/15 Treniņš ar Valdu Lielvārdē Dainis 7.70 59:00 07:39 7.83 ir
11/06/15 Treniņš ar Valdu Lielvārdē Dainis 7.70 55:00 07:08 8.40 ir
09/06/15 Lielvārdē Dainis 10.00 1:00:00 06:00 10.00 ir
08/06/15 Lielvārdē Dainis 10.00 57:00 05:42 10.53 ir
56.43
06/06/15 LSC atklātais čempionāts šosejas skrējienos, 3. kārta Dainis 10.00 45:10 04:31 13.28 ir
06/06/15 ies.ats Dainis 1.50 12:00 08:00 7.50 ir
04/06/15 Treniņš ar Valdu Dainis 11.20 1:19:37 07:06 8.44 ir
03/06/15 Parkā Dainis 4.10 23:36 05:45 10.42 ir
02/06/15 Treniņš ar Valdu Dainis 6.43 45:59 07:09 8.39 ir
01/06/15 Treniņš ar Valdu Dainis 8.10 58:43 07:14 8.28 ir
41.33
31/05/15 Daugavmalā: atskrējiens Dainis 9.09 1:01:00 06:42 8.94 ir
31/05/15 LSC atklātais čempionāts stadiona skrējienos Dainis 3.00 13:02 04:20 13.81 ir
31/05/15 LSC atklātais čempionāts stadiona skrējienos Dainis 0.80 03:10 03:57 15.16 ir
31/05/15 ies/ats Dainis 2.85 19:00 06:40 9.00
28/05/15 Daugavmalā ar Valdu Dainis 11.00 1:24:38 07:41 7.80 ir
27/05/15 Daugavmalā ar Valdu Dainis 11.00 1:20:00 07:16 8.25 ir
25/05/15 Ziedoņdārzā un Grīziņkalnā ar Valdu Dainis 4.00 28:00 07:00 8.57 ir
41.74
24/05/15 Ķengaragā Dainis 21.13 2:19:31 06:36 9.09 ir
23/05/15 Miera dārza parkā ar Valdu Dainis 4.23 32:00 07:33 7.93 ir
22/05/15 Daugavmalā Dainis 12.14 1:14:16 06:07 9.81 ir
21/05/15 Daugavmalā: Dainis 11.75 1:21:00 06:53 8.70 ir
19/05/15 Daugavmalā: ostā Frad.Olsen Cruise Lines: Braemar Dainis 11.50 1:11:55 06:15 9.59 ir
60.75
17/05/15 p/m ie Rīga m. Dainis 21.10 1:46:48 05:03 11.85 ir
17/05/15 mar/ies/ats Dainis 1.50 10:00 06:40 9.00 ir
15/05/15 piereģistrējāmies.... Dainis 5.15 32:50 06:22 9.41 ir
13/05/15 Daugavmalā Dainis 10.45 1:07:50 06:29 9.24 ir
12/05/15 Daugavmalā Dainis 12.00 1:12:17 06:01 9.96 ir
11/05/15 Daugavmalā Dainis 8.67 1:00:11 06:56 8.64 ir
58.87
09/05/15 ies/ats Dainis 2.00 14:00 07:00 8.57 ir
09/05/15 LSC atklātais čempionāts šosejas skrējienos, 2. kārta Dainis 15.00 1:12:46 04:51 12.37 ir
07/05/15 Daugavmalā Dainis 17.08 1:50:48 06:29 9.25 ir
05/05/15 Dienvidu tilts Dainis 10.00 1:04:36 06:27 9.29 ir
04/05/15 Daugavmalā Dainis 11.65 1:10:53 06:05 9.86 ir
55.73
02/05/15 ies.ats Dainis 3.00 18:00 06:00 10.00 ir
02/05/15 Veterānu kross Daugavpilī Dainis 3.00 13:54 04:38 12.95 ir
01/05/15 Daugavmalā velorosība, tā kā kāds kristās, tik ņurku neredzēju Dainis 11.31 1:13:38 06:30 9.22 ir
30/04/15 Aiz Mazjumpravmuižas līdz pat ceļa galam Dainis 20.70 2:15:03 06:31 9.20 ir
28/04/15 Pie sv. Franciska Dainis 2.80 18:00 06:25 9.33 ir
40.81
26/04/15 Biķernieku pusmaratons Dainis 21.10 1:53:45 05:23 11.13 ir
23/04/15 RP osta: Isabelles nav Dainis 11.75 1:18:00 06:38 9.04 ir
22/04/15 RP osta ar Isabelli Dainis 11.76 1:24:00 07:08 8.40 ir
21/04/15 RP ostā Isabelles nav Dainis 11.76 1:19:00 06:43 8.93 ir
20/04/15 Daugavmalā Dainis 9.75 1:06:11 06:47 8.84 ir
66.12
18/04/15 ats. Dainis 2.75 20:38 07:30 8.00 ir
18/04/15 LSC atklātais čempionāts stadiona skrējienos, 1. kārta Dainis 10.25 48:17 04:42 12.74 ir
18/04/15 ies. Dainis 4.64 42:04 09:03 6.62 ir
17/04/15 Pie sv.Franciska Dainis 4.40 28:49 06:32 9.16 ir
16/04/15 Daugavmalā Dainis 9.54 1:00:27 06:20 9.47 ir
15/04/15 Daigavmalā Dainis 8.77 1:02:15 07:05 8.45 ir
14/04/15 Daugavmalā Dainis 9.20 1:03:00 06:50 8.76 ir
49.55
11/04/15 LSC atklātais čempionāts šosejas skrējienos, 1. kārta – IX Mežaparka LSC pusmaratons Dainis 21.10 1:56:05 05:30 10.91 ir
11/04/15 ies/ats Dainis 1.53 13:32 08:50 6.78 ir
10/04/15 Daugavmalā Dainis 10.09 1:15:30 07:28 8.02 ir
06/04/15 Rēzeknes pusmaratons Dainis 21.10 1:54:29 05:25 11.06 ir
06/04/15 ies.ats. Rēzeknē Dainis 4.00 27:00 06:45 8.89 ir
57.82
03/04/15 Daugavmalā Dainis 10.65 1:09:20 06:30 9.22 ir
02/04/15 Daugavmalā Dainis 11.37 1:10:35 06:12 9.67 ir
31/03/15 Miera dārzā Dainis 2.80 17:00 06:04 9.88 ir
31/03/15 Pēc Ozolnieku apgāziena Dainis 2.80 18:00 06:25 9.33 ir
27.62
29/03/15 Ozolnieki Dainis 10.00 46:46 04:40 12.83 ir
29/03/15 ies./ats. Dainis 3.00 21:00 07:00 8.57 ir
26/03/15 Daugavmalā Dainis 13.49 1:17:55 05:46 10.39 ir
25/03/15 Dienvidu tilrs Dainis 10.85 1:00:38 05:35 10.74 ir
24/03/15 Dienvidu tilts Dainis 10.75 57:27 05:20 11.23 ir
23/03/15 Dienvidu tilts Dainis 10.17 1:02:43 06:10 9.73 ir
58.26
22/03/15 Daugavmalā Dainis 11.32 1:13:38 06:30 9.22 ir
21/03/15 LSC seriāla “Veselība-2015″ 6. kārta Dainis 10.00 47:50 04:47 12.54 ir
21/03/15 ies./ats. Dainis 3.10 23:15 07:30 8.00 ir
19/03/15 Dienvidu tilts Dainis 14.12 1:23:46 05:55 10.11 ir
17/03/15 Daugavmalā Dainis 13.47 1:30:07 06:41 8.97
52.01
15/03/15 Ostas skati - Isabelle Dainis 17.55 1:56:20 06:37 9.05 ir
14/03/15 Daugavmalā Dainis 20.05 2:11:20 06:33 9.16 ir
12/03/15 Daugavmalā Dainis 13.41 1:23:23 06:13 9.65 ir
11/03/15 Daugavmalā Dainis 13.50 1:19:00 05:51 10.25 ir
10/03/15 Pie sv. Franciska Dainis 7.60 47:00 06:11 9.70 ir
09/03/15 Pie sv. Franciska: atskrējiens Dainis 6.00 37:56 06:19 9.49 ir
78.11
08/03/15 LSVSS 52. sporta spēles Dainis 3.00 13:23 04:27 13.45 ir
08/03/15 LSVSS 52. sporta spēles Dainis 0.20 00:40 03:20 18.00 ir
08/03/15 LSVSS 52. sporta spēles Dainis 1.50 06:10 04:06 14.59 ir
08/03/15 manēžā Dainis 7.00 42:00 06:00 10.00 ir
07/03/15 LSC seriāla “Veselība-2015″ 5. kārta Dainis 4.00 18:34 04:38 12.93 ir
07/03/15 uz/no/ies/ats. Dainis 8.61 1:03:00 07:19 8.20 ir
06/03/15 Daugavmalā Dainis 6.67 43:12 06:28 9.26 ir
05/03/15 Daugavmalā Dainis 13.36 1:26:20 06:27 9.28 ir
04/03/15 Dienvidu tilts Dainis 10.95 1:12:27 06:36 9.07 ir
03/03/15 Daugavas stadions Dainis 6.62 44:03 06:39 9.02 ir
02/03/15 Dienvidu tilts Dainis 10.30 1:03:36 06:10 9.72 ir
72.21
01/03/15 Daugavmalā Dainis 19.83 2:06:29 06:22 9.41 ir
28/02/15 Daugavmalā Dainis 13.44 1:20:00 05:57 10.08 ir
27/02/15 Daugavmalā Dainis 13.45 1:26:00 06:23 9.38 ir
26/02/15 Daugavmalā osta tukša: Isabelle miglā izgaist ar Ferdinandu Dainis 11.74 1:12:17 06:09 9.74 ir
25/02/15 Daugavmalā Dainis 12.03 1:18:54 06:33 9.15 ir
24/02/15 Daugavmalā Dainis 11.87 1:09:04 05:49 10.31 ir
23/02/15 Daugavmalā Dainis 13.53 1:25:00 06:16 9.55 ir
95.89
22/02/15 LSC seriāla “Veselība-2015″ 4. kārta Dainis 4.00 18:27 04:36 13.01 ir
22/02/15 ies./ats. Dainis 5.35 37:19 06:58 8.60 ir
20/02/15 Lielais Kaspars Dainis 9.30 58:48 06:19 9.49
19/02/15 Daugavmalā Dainis 20.04 1:59:30 05:57 10.06 ir
18/02/15 Daugavmalā Dainis 11.86 1:10:31 05:56 10.09 ir
17/02/15 Daugavmalā Dainis 13.33 1:26:42 06:30 9.22 ir
16/02/15 Daugavmalā Dainis 11.34 1:13:47 06:30 9.22 ir
75.22
15/02/15 Pie sv. Franciska Dainis 6.00 36:00 06:00 10.00 ir
13/02/15 t/c Domina Dainis 6.00 40:00 06:40 9.00 ir
10/02/15 Daugavmalā: pavasaris? Dainis 21.55 2:21:00 06:32 9.17 ir
09/02/15 Daugavmala Dainis 21.50 2:24:00 06:41 8.96 ir
55.05
07/02/15 LSC seriāla “Veselība-2015″ 3. kārta Dainis 4.00 18:17 04:34 13.13 ir
07/02/15 ies/ats. Dainis 5.50 36:00 06:32 9.17 ir
06/02/15 Pie sv. Franciska Dainis 6.00 38:00 06:20 9.47 ir
05/02/15 Lielais Kristaps Dainis 11.00 1:15:00 06:49 8.80 ir
04/02/15 Pie sv. Franciska Dainis 6.00 37:38 06:16 9.57 ir
03/02/15 Isabelle jau ostā. Kur kavējas Ferdinands? Dainis 13.03 1:25:10 06:32 9.18 ir
02/02/15 Lielais Kristaps Dainis 10.45 1:07:52 06:29 9.24 ir
55.98
31/01/15 Daugavmala Dainis 21.02 2:27:23 07:00 8.56 ir
31/01/15 Daugavmala Dainis 21.48 2:24:38 06:44 8.91 ir
30/01/15 Gulbji vēl aizvien Ķengaraga piestātnē: kur viņi uz nakti aizlido? Dainis 16.03 1:49:09 06:48 8.81 ir
28/01/15 No Ķengaraga piestātnes aizlidoja gulbji: uz naksguļu vai sitākām zemēm? Kas zina? Dainis 28.50 3:06:27 06:32 9.17 ir
27/01/15 Daugavmalā Dainis 19.74 2:15:00 06:50 8.77 ir
26/01/15 Daugavmalā Dainis 19.74 2:06:23 06:24 9.37 ir
126.51
25/01/15 RP osta - Mazā Jumpravmuiža Dainis 28.42 3:00:32 06:21 9.45 ir
24/01/15 Mazā Jumpravmuiža Dainis 22.04 2:27:35 06:41 8.96 ir
23/01/15 RP osta - Ķīpsala: Tiltu iela, Matrožu iela Dainis 18.42 2:11:32 07:08 8.40 ir
22/01/15 Pie sv. Franciska Dainis 18.80 2:05:29 06:40 8.99 ir
21/01/15 Pie sv. Franciska Dainis 18.80 2:15:00 07:10 8.36 ir
19/01/15 Osta pieci tilti: pie Lielā Kristapa Kristību dienas peldes Dainis 20.01 2:10:50 06:32 9.18 ir
126.49
18/01/15 Osta un 5 tilti Dainis 19.33 2:04:44 06:27 9.30 ir
17/01/15 Pie sv. Franciska: atskrējiens Dainis 6.00 40:00 06:40 9.00 ir
17/01/15 LSC seriāla “Veselība-2015″ 2. kārta Dainis 4.00 21:42 05:25 11.06 ir
17/01/15 Lidz stadionam Dainis 1.40 09:00 06:25 9.33 ir
16/01/15 5 tilti Daugavmala Dainis 17.40 1:51:11 06:23 9.39 ir
15/01/15 5 tilti Daugavmala Dainis 17.37 1:49:37 06:18 9.51 ir
14/01/15 Līdz Ostas Skatiem jāmetas peldus: šodien nepeldēju Dainis 17.40 2:00:00 06:53 8.70 ir
13/01/15 Ķīpsala Dainis 14.62 1:43:30 07:04 8.48 ir
12/01/15 Pie sv. Franciska Dainis 11.00 1:13:12 06:39 9.02 ir
12/01/15 Pie sv. Franciska Dainis 6.00 37:00 06:10 9.73 ir
114.52
10/01/15 Pie sv. Franciska: ļoti slidens Dainis 2.80 20:00 07:08 8.40 ir
07/01/15 Pie sv. Franciska Dainis 4.43 29:00 06:32 9.17 ir
06/01/15 Pie sv. Franciska Dainis 2.80 18:55 06:45 8.88 ir
05/01/15 Pie sv. Franciska Dainis 7.60 51:24 06:45 8.87 ir
17.63
03/01/15 LSC seriāla “Veselība-2015″ 1. kārta Dainis 6.18 33:19 05:23 11.13 ir
03/01/15 ies./ats. Dainis 2.80 18:00 06:25 9.33 ir
01/01/15 Jaungada skrējiens: Laimīgu Jauno gadu 2015!!!! Dainis 6.00 44:01 07:20 8.18 ir
31/12/14 sniegi, sniegi... Dainis 3.95 30:35 07:44 7.75 ir
30/12/14 Pie sv. Franciska Dainis 7.60 50:50 06:41 8.97 ir
29/12/14 Pie sv. Franciska Dainis 17.20 1:53:27 06:35 9.10 ir
43.73
28/12/14 Pie sv. Franciska Dainis 7.60 51:37 06:47 8.83 ir
27/12/14 Mājup no Grīziņkalna Dainis 2.84 21:34 07:35 7.90 ir
27/12/14 LSC seriāla “Veselība-2014″ 10. kārta Dainis 4.76 25:48 05:25 11.07 ir
27/12/14 Grīziņkalnā Dainis 3.39 26:24 07:47 7.70 ir
26/12/14 Sveiciens 2. Ziemsvētkos! Dainis 4.40 31:08 07:04 8.48 ir
25/12/14 Priecīgus Ziemassvētkus! Dainis 5.53 38:30 06:57 8.62 ir
28.52
18/12/14 Pie sv. Franciska Dainis 17.20 2:09:48 07:32 7.95 ir
16/12/14 Pie sv. Franciska Dainis 17.20 1:57:35 06:50 8.78 ir
15/12/14 Desmittūkstotnieks pievārēts! Dainis 17.25 1:56:23 06:44 8.89 ir
51.65
14/12/14 Grīziņkalnā spožā saulē Dainis 17.32 2:02:53 07:05 8.46
13/12/14 Veselības skrējiens Grīziņkalnā + pirms un pēc... Dainis 17.40 1:49:34 06:17 9.53 ir
12/12/14 Pie sv. Franciska Dainis 17.20 2:00:07 06:59 8.59 ir
11/12/14 Pie sv. Franciska Dainis 17.20 1:56:04 06:44 8.89
10/12/14 Gandrīz līdz Jumpravmuižai Dainis 17.22 1:55:27 06:42 8.95 ir
09/12/14 Pie sv. Franciska Dainis 17.20 1:56:01 06:44 8.90 ir
08/12/14 Pie sv. Franciska Dainis 17.20 1:45:00 06:06 9.83 ir
120.74
07/12/14 Pie sv. Franciska Dainis 12.43 1:21:57 06:35 9.10 ir
06/12/14 Pie sv. Franciska vakarā Dainis 12.40 1:22:32 06:39 9.01 ir
05/12/14 Pie sv. Franciska vakarā Dainis 7.60 41:38 05:28 10.95 ir
03/12/14 Pie sv. Franciska vakarā Dainis 6.00 36:00 06:00 10.00 ir
02/12/14 Pie sv. Franciska Dainis 6.00 37:10 06:11 9.69 ir
01/12/14 Pie sv. Franciska Dainis 4.40 26:00 05:54 10.15 ir
48.83
30/11/14 Pie sv. Franciska Dainis 4.40 30:00 06:49 8.80 ir
28/11/14 Pie sv. Franciska Dainis 6.00 36:25 06:04 9.89 ir
27/11/14 Pie sv. Franciska Dainis 6.00 34:30 05:45 10.43 ir
26/11/14 Pie sv. Franciska Dainis 7.60 50:04 06:35 9.11 ir
25/11/14 Pie sv. Franciska Dainis 12.40 1:19:44 06:25 9.33 ir
24/11/14 Pie sv. Franciska Dainis 6.00 36:37 06:06 9.83 ir
42.40
23/11/14 LSC seriāla “Veselība-2014″ 8. kārta Dainis 5.00 24:38 04:55 12.18 ir
23/11/14 ies/ats. Dainis 3.30 24:56 07:33 7.94 ir
22/11/14 Grīziņkalnā Dainis 5.45 35:27 157 06:30 9.22 ir
18/11/14 Latvijai Dzimšanas diena! Dainis 2.80 16:48 06:00 10.00 ir
16.55
14/11/14 Pie sv. Franciska Dainis 4.40 27:35 06:16 9.57 ir
4.40
09/11/14 Pie sv. Franciska Dainis 4.40 26:00 05:54 10.15 ir
08/11/14 LSC seriāla “Veselība-2014″ 7. kārta Dainis 5.00 28:41 05:44 10.46 ir
08/11/14 ies. Dainis 2.00 13:00 06:30 9.23 ir
05/11/14 Pie sv. Franciska Dainis 4.40 28:15 06:25 9.35 ir
03/11/14 Ķīpsala Dainis 15.77 1:42:55 06:31 9.19 ir
31.57
02/11/14 Pie sv. Franciska Dainis 2.80 18:00 06:25 9.33 ir
01/11/14 ies./ats. Dainis 3.00 30:00 10:00 6.00 ir
01/11/14 LSC atklātais čempionāts šosejas skrējienos, 7. kārta Dainis 5.00 25:11 05:02 11.91 ir
29/10/14 Mazais Jumpravmuižas dīķis, līdz jaunā celiņa galam Dainis 20.43 2:05:03 06:07 9.80 ir
28/10/14 Pie sv. Franciska Dainis 4.40 25:00 05:40 10.56 ir
35.63
26/10/14 Pie sv. Franciska Dainis 7.60 44:30 05:51 10.25 ir
25/10/14 Pie sv. Franciska Dainis 4.40 24:55 05:39 10.60 ir
22/10/14 Pie sv. Franciska Dainis 7.60 45:00 05:55 10.13 ir
19.60
19/10/14 Ozolnieki pusmaratons Dainis 21.10 1:51:08 05:16 11.39 ir
15/10/14 Pie sv. Franciska Dainis 4.40 27:00 06:08 9.78 ir
14/10/14 Pie sv. Franciska Dainis 4.40 25:30 05:47 10.35 ir
13/10/14 Pie sv. Franciska Dainis 4.40 30:00 06:49 8.80 ir
34.30
12/10/14 Pie sv. Franciska Dainis 4.40 27:00 06:08 9.78 ir
11/10/14 Pie sv. Franciska Dainis 12.40 1:10:30 05:41 10.55 ir
07/10/14 Pie sv. Franciska Dainis 4.40 28:00 06:21 9.43 ir
21.20
05/10/14 Pie sv. Franciska Dainis 6.01 36:44 06:06 9.82 ir
04/10/14 Daugavas stadionā Dainis 3.00 19:00 06:20 9.47 ir
02/10/14 Pie sv. Franciska Dainis 4.40 26:30 06:01 9.96 ir
01/10/14 Pie sv. Franciska Dainis 9.20 52:00 05:39 10.62 ir
30/09/14 Rīta skrējiens Dainis 1.20 07:00 05:50 10.29 ir
23.81
28/09/14 Pie sv. Franciska Dainis 6.00 37:00 06:10 9.73 ir
27/09/14 LSC atklātais čempionāts šosejas skrējienos, 6. kārta Dainis 5.00 24:17 04:51 12.35 ir
27/09/14 ies./ats. Dainis 2.70 17:00 06:17 9.53 ir
26/09/14 Rīta skrējiens Dainis 3.00 18:00 06:00 10.00 ir
25/09/14 Pie sv. Franciska Dainis 6.00 34:45 05:47 10.36 ir
24/09/14 Pēcpusdienas skrējiens Dainis 2.80 15:40 05:35 10.72 ir
25.50
21/09/14 Valmieras pusmaratons Dainis 21.10 1:56:30 05:31 10.87 ir
19/09/14 Pie sv. Franciska Dainis 7.60 46:39 06:08 9.77 ir
17/09/14 Līdz Dienvidu tiltam Dainis 11.25 1:08:37 06:05 9.84 ir
16/09/14 Vakara skrējiens Dainis 4.40 25:00 05:40 10.56 ir
44.35
14/09/14 Pie sv. Franciska Dainis 7.60 46:31 06:07 9.80 ir
13/09/14 Pie sv. Franciska Dainis 7.60 52:00 06:50 8.77 ir
11/09/14 Pie sv. Franciska Dainis 7.60 40:30 05:19 11.26 ir
10/09/14 Rīta skrējiens Dainis 7.60 42:00 05:31 10.86 ir
30.40
07/09/14 LSC atklātais čempionāts stadiona skrējienos, 6. kārta Dainis 5.00 24:45 04:57 12.12 ir
07/09/14 LSC atklātais čempionāts stadiona skrējienos, 6. kārta Dainis 1.50 06:30 04:20 13.85 ir
07/09/14 ies./ats. stadionā Dainis 2.23 14:00 06:16 9.56 ir
06/09/14 iesild. Dainis 2.20 13:00 05:54 10.15 ir
06/09/14 Gillette 5. Jūrmalas pusmaratons Dainis 21.10 1:47:17 05:05 11.80 ir
04/09/14 Pie sv. Franciska Dainis 4.40 26:00 05:54 10.15 ir
03/09/14 Pie sv. Franciska Dainis 2.80 17:00 06:04 9.88 ir
02/09/14 Līdz Dienvidu tiltam Dainis 10.50 56:00 05:20 11.25 ir
01/09/14 Pie sv. Franciska: gadskārtas skrējiens Dainis 7.60 44:00 05:47 10.36 ir
57.33
31/08/14 Pie sv. Franciska Dainis 6.15 34:00 05:31 10.85 ir
29/08/14 Pie sv. Franciska Dainis 4.40 25:30 05:47 10.35 ir
28/08/14 Pie sv. Franciska Dainis 4.40 23:30 05:20 11.23 ir
27/08/14 Kāpņu treniņš Dainis 0.00 ir
26/08/14 Pie sv. Franciska Dainis 4.40 24:00 05:27 11.00 ir
19.35
24/08/14 Ies. pirms nokavētām sacīkstēm Dainis 1.00 06:00 06:00 10.00 ir
23/08/14 Grīziņkalnā un ap Daugavas stadionu Dainis 8.23 46:14 05:37 10.68 ir
22/08/14 Līdz piestātnei Ķengaragā Dainis 16.19 1:33:05 05:44 10.44 ir
19/08/14 Pie sv.Franciska: dažii intervāli Dainis 6.70 40:21 06:01 9.96 ir
32.12
16/08/14 LSC atklātais čempionāts stadiona skrējienos: stundas skrējiens Dainis 11.47 1:00:00 05:13 11.47 ir
16/08/14 Līdz stadionam, ies/ats Dainis 5.30 32:00 06:02 9.94 ir
14/08/14 Pie sv. Franciska Dainis 6.00 33:03 05:30 10.89 ir
12/08/14 Līdz Dienvidu tiltam Dainis 10.40 58:00 05:34 10.76 ir
33.17
09/08/14 Kuldīgas pusmaratons Dainis 21.10 1:52:51 05:20 11.22 ir
06/08/14 Visa ģimene skrien - tikai kaķis palicis mājās Dainis 5.40 37:30 06:56 8.64 ir
06/08/14 Kāpņu treniņš Dainis 0.00 ir
05/08/14 Parkā Dainis 3.30 26:00 07:52 7.62 ir
04/08/14 Visa ģimene skrien - tikai kaķis palicis mājās Dainis 4.43 30:56 06:58 8.59 ir
34.23
03/08/14 Šri Činmoja organizācijas skrējienu seriāls.  15.kārta Dainis 3.20 17:51 05:34 10.76 ir
03/08/14 Līdz Arkādijai un ieslid. Dainis 5.00 32:00 06:24 9.38 ir
01/08/14 Rīta skrējiens Dainis 2.80 17:50 06:22 9.42 ir
31/07/14 Līdz Abrenes ielai Dainis 1.00 06:00 06:00 10.00 ir
30/07/14 Kāpņu treniņš Dainis 0.00 ir
29/07/14 Kāpņu treniņš Dainis 0.00 ir
12.00
27/07/14 LSC atklātais čempionāts šosejas skrējienos, 4. kārta Dainis 15.00 1:20:14 05:20 11.22 ir
27/07/14 ies./ats. Dainis 2.00 13:00 06:30 9.23 ir
24/07/14 Pie sv. Franciska Dainis 2.80 15:00 05:21 11.20 ir
23/07/14 Intervāli Dainis 5.93 32:30 05:28 10.95 ir
22/07/14 Mazais Jumpravmuižas dīķis Dainis 19.07 1:55:54 06:04 9.87 ir
44.80
19/07/14 ies/ats/nepabeigts piecnieks Dainis 5.00 30:00 06:00 10.00 ir
19/07/14 LSC atklātais čempionāts stadiona skrējienos, 4. kārta Dainis 0.60 02:07 03:31 17.01 ir
19/07/14 LSC atklātais čempionāts stadiona skrējienos, 4. kārta Dainis 0.10 00:16 02:40 22.50 ir
17/07/14 Intervāli Dainis 6.53 36:32 05:35 10.72 ir
15/07/14 Mazā Jumpravmuižas dīķa renovācija: caur armēņu baznīcu Dainis 19.19 1:55:50 06:02 9.94 ir
31.42
13/07/14 Pēcjelgava Dainis 4.40 28:30 06:28 9.26 ir
12/07/14 Jelgavas pusnakts pusmaratons Dainis 21.10 1:50:00 05:12 11.51 ir
10/07/14 Dienvidu tilts Dainis 10.28 58:30 05:41 10.54 ir
09/07/14 Drusku paskrienam Dainis 2.00 12:30 06:15 9.60 ir
37.78
06/07/14 Vai varam paskriet? Dainis 4.40 24:30 05:34 10.78 ir
05/07/14 Vai varam paskriet Dainis 6.50 38:30 05:55 10.13 ir
02/07/14 Vai varam paskriet? Dainis 1.00 06:30 06:30 9.23 ir
11.90
25/06/14 Lielvārdē Dainis 8.80 53:00 06:01 9.96 ir
8.80
22/06/14 Lielvārde: intervāli Dainis 9.20 51:00 05:32 10.82 ir
18/06/14 Lielvārdē Dainis 6.56 35:30 05:24 11.09 ir
17/06/14 atskrējiens Dainis 2.00 13:00 06:30 9.23 ir
17.76
15/06/14 Pusīte no Ventspils p/m Dainis 10.80 52:00 04:48 12.46 ir
14/06/14 LSC atklātais čempionāts stadiona skrējienos, 3. kārta Dainis 5.00 23:17 04:39 12.88 ir
14/06/14 LSC atklātais čempionāts stadiona skrējienos, 3. kārta Dainis 1.00 03:51 03:51 15.58 ir
14/06/14 ies/ats Dainis 4.00 24:00 06:00 10.00 ir
11/06/14 Lielvārdē Dainis 13.20 1:09:10 05:14 11.45 ir
34.00
07/06/14 LSC atklātais čempionāts šosejas skrējienos, 3. kārta Dainis 10.00 45:22 04:32 13.23 ir
07/06/14 ies/ats Dainis 2.50 15:00 06:00 10.00 ir
06/06/14 Lielvārdē riņķis Dainis 8.50 45:10 05:18 11.29 ir
03/06/14 Grīziņkalns Dainis 4.95 26:28 05:20 11.22 ir
02/06/14 Grīzīņkalnā Dainis 9.04 55:56 06:11 9.70 ir
34.99
31/05/14 “Izskrien Rīgu” 1. posms – Skrējiens Daugavas vidū (Lucavsala) Dainis 5.00 23:47 04:45 12.61 ir
31/05/14 ies/ats Dainis 1.20 07:50 06:31 9.19 ir
29/05/14 Pie sv. Franciska Dainis 7.60 41:00 05:23 11.12 ir
28/05/14 Pie sv. Franciska Dainis 4.40 25:00 05:40 10.56 ir
26/05/14 Mazā Jumpravmuižas dīķa renovācija: gatavs? Dainis 20.11 1:52:01 05:34 10.77 ir
38.31
24/05/14 LSC atklātais čempionāts šosejas skrējienos, 2. kārta Dainis 5.00 21:35 04:19 13.90 ir
24/05/14 ies./ats. Dainis 5.60 36:00 06:25 9.33 ir
23/05/14 Pie sv.Franciska Dainis 2.80 18:00 06:25 9.33 ir
22/05/14 Ap Daugavas stadionu Dainis 7.85 42:27 05:24 11.10 ir
20/05/14 No Drāmas teātra lietū Dainis 3.00 20:00 06:40 9.00
20/05/14 Pie sv. Franciska Dainis 6.00 33:55 05:39 10.61 ir
19/05/14 Atskrējiens pēc p/m Dainis 4.40 23:34 05:21 11.20 ir
34.65
18/05/14 Nordea pusmaratons + 2km aste Dainis 23.46 1:55:28 04:55 12.19 ir
18/05/14 Uz Daugavmalu Dainis 2.00 18:00 09:00 6.67 ir
16/05/14 Kāpņu treniņš Dainis 0.00 ir
15/05/14 Pie sv. Franciska Dainis 4.40 30:00 06:49 8.80 ir
14/05/14 Kāpņu treniņš Dainis 0.00 ir
29.86
11/05/14 Uz Vaiņodes ielu Dainis 3.00 19:00 06:20 9.47 ir
11/05/14 Šri Činmoja organizācijas skrējienu seriāls, 9.kārta Dainis 3.20 13:06 04:05 14.66 ir
11/05/14 ies.ats. Dainis 3.50 19:50 05:40 10.59 ir
08/05/14 Pēc Josera mincim Dainis 4.75 30:54 06:30 9.22 ir
07/05/14 Pie sv. Franciska Dainis 9.20 54:45 05:57 10.08 ir
06/05/14 No Sarkandaugavas Dainis 6.30 36:45 05:50 10.29 ir
06/05/14 Līdz Sarkandaugavai Dainis 6.30 37:30 05:57 10.08 ir
05/05/14 LSC atklātais čempionāts stadiona skrējienos, 2. kārta Dainis 3.00 12:36 04:12 14.29 ir
05/05/14 uz stadionu, ies/ats. Dainis 5.70 36:00 06:18 9.50 ir
44.95
04/05/14 Pie sv. Feranciska Dainis 2.80 16:10 05:46 10.39 ir
03/05/14 ies/ats Dainis 1.00 06:30 06:30 9.23 ir
03/05/14 Aizkraukles novada 1. pusmaratons Dainis 21.10 1:43:04 04:53 12.28 ir
02/05/14 Pie sv. Franciska Dainis 4.40 26:54 06:06 9.81 ir
30/04/14 Pie sv. Franciska Dainis 6.00 36:54 06:09 9.76 ir
29/04/14 Līdz Valdemāra ielai Dainis 1.00 06:10 06:10 9.73 ir
36.30
27/04/14 Atskrējiens Dainis 4.00 25:00 06:15 9.60 ir
27/04/14 Biķernieku pusmaratons Dainis 21.10 1:46:30 05:02 11.89 ir
27/04/14 Uz Biķernieku trasi un iesildišanās Dainis 3.65 23:30 06:26 9.32 ir
26/04/14 ats. Dainis 3.58